GFSFLT1_sfc_30mbdewp_000.txt.gz
Dewpoint
62 59 58 58 57 57 57 58 58 57 57 57 58 59 55 57 52 57 59 60 59 56 57 58 59 58 58 56 53 53 53 52 54
62 60 58 57 58 57 57 56 57 58 58 57 57 58 56 54 50 55 58 58 57 56 56 55 55 55 54 55 53 52 51 52 53
61 59 59 58 58 58 58 58 57 56 57 58 58 58 58 54 50 51 56 56 57 57 56 55 55 54 53 53 53 52 51 52 52
61 61 61 59 58 58 60 60 59 58 57 57 57 58 60 56 52 49 53 56 58 57 55 56 56 55 54 52 54 53 52 51 51
62 62 62 60 60 58 59 60 59 58 56 56 57 59 59 59 56 52 49 56 58 57 55 56 55 55 55 54 52 53 53 52 51
61 61 62 62 60 59 58 59 59 59 58 57 57 59 59 58 57 55 53 53 57 57 57 55 56 55 55 55 54 52 52 52 52
60 60 61 62 62 61 60 59 60 60 57 55 54 56 57 58 57 57 57 55 53 55 56 56 55 56 54 54 55 54 53 52 52
59 59 59 60 61 61 61 60 60 58 57 55 53 53 53 54 56 57 58 57 54 54 55 56 58 57 56 54 53 54 53 53 53
59 58 58 58 58 58 59 59 58 58 56 55 54 52 51 51 51 52 54 55 55 53 52 54 57 59 58 57 55 55 55 54 54
59 58 58 57 58 58 57 57 57 57 56 55 54 53 52 51 50 49 50 52 52 53 52 51 54 55 59 59 58 58 57 57 56
58 58 57 57 57 57 57 57 57 57 56 55 54 53 53 51 50 49 48 51 52 53 54 54 50 52 55 59 59 60 59 58 58
58 58 57 57 57 57 57 57 56 56 55 54 54 54 53 51 50 48 48 49 52 53 53 53 53 53 52 54 59 59 59 59 59
57 57 57 57 56 55 55 55 54 53 53 53 52 52 52 51 50 48 47 46 45 46 50 52 53 54 55 53 55 58 58 59 59
56 56 56 56 55 55 54 53 53 52 52 52 51 51 50 50 50 49 49 47 47 46 46 49 51 54 55 53 54 56 57 58 58
55 55 55 55 55 54 54 54 54 53 53 53 53 53 52 51 51 51 50 50 49 48 47 47 48 51 52 53 55 57 58 57 57
56 55 55 55 55 55 55 55 54 54 54 53 53 53 53 53 53 52 52 52 51 51 49 49 48 48 50 52 53 55 57 58 58
53 54 55 56 57 57 56 56 55 56 56 54 54 52 53 53 54 53 53 53 53 53 52 51 49 49 49 49 51 53 54 55 56
43 44 45 47 51 52 54 56 56 55 56 56 54 51 50 53 54 52 53 53 53 53 53 52 52 50 49 50 50 51 52 53 55
41 41 41 42 43 43 45 45 49 51 52 54 55 56 55 52 51 53 53 53 52 52 53 52 52 52 51 51 50 50 51 53 54
40 40 40 40 41 42 43 43 44 45 47 48 51 51 51 52 50 47 48 50 52 55 53 53 52 52 52 52 51 52 53 54 55

GFSFLT1_sfc_30mbdewp_003.txt.gz
Dewpoint
60 60 59 58 59 58 58 58 59 59 58 59 58 59 59 58 55 56 59 59 58 57 57 57 59 60 59 59 57 54 54 53 54
62 62 60 59 58 58 58 58 58 57 58 59 58 57 58 56 53 52 58 59 61 58 55 57 56 58 57 57 56 53 53 52 53
63 62 60 59 59 58 58 59 59 58 58 57 58 57 58 56 55 51 53 58 60 57 56 56 56 55 55 54 55 54 52 52 53
63 62 62 61 60 59 57 62 61 60 59 58 58 58 59 58 58 55 50 53 59 58 58 57 57 56 55 55 53 55 54 52 52
63 63 63 62 61 60 57 59 61 60 59 59 58 59 59 56 58 58 56 53 53 58 58 58 56 56 56 56 55 53 55 54 53
62 61 62 63 62 60 59 58 59 59 60 59 58 57 53 54 55 57 58 59 56 54 57 57 58 57 57 56 56 55 54 54 54
61 61 61 62 62 63 61 60 60 61 58 58 57 55 54 53 53 54 58 59 58 56 54 56 57 57 58 57 56 56 56 54 54
61 61 61 61 61 60 60 59 58 58 58 58 57 56 55 53 53 53 56 57 56 57 56 54 56 56 58 59 57 56 56 56 55
60 60 60 60 60 60 59 58 58 58 58 58 57 56 55 54 52 52 54 55 54 52 54 55 53 54 56 58 60 60 58 58 58
60 59 59 59 59 59 58 58 57 57 57 57 56 56 55 54 53 53 53 54 55 54 51 51 53 52 53 57 60 61 61 59 58
59 59 59 59 58 58 58 57 57 57 57 56 56 56 55 54 54 53 52 53 54 55 55 53 52 53 54 53 58 60 62 61 60
60 59 59 58 58 58 57 57 57 56 56 56 55 55 55 54 54 53 52 52 52 54 55 56 56 55 54 54 55 57 59 61 61
58 58 58 58 57 57 56 56 56 55 55 54 54 54 54 54 54 53 53 52 51 51 53 55 56 56 56 55 55 57 57 58 60
57 57 57 57 57 57 56 56 55 55 55 55 55 55 54 54 53 53 52 52 52 51 51 51 54 56 57 56 56 58 58 58 59
57 57 56 56 56 56 56 56 56 55 55 54 54 55 56 56 54 53 53 52 52 52 52 52 51 52 53 55 56 58 59 59 59
45 46 45 46 48 49 50 53 53 53 55 55 54 54 54 55 55 55 54 54 53 53 53 53 52 51 52 53 55 56 58 60 60
39 40 40 41 42 41 43 44 44 45 47 51 52 50 49 51 55 55 55 55 55 54 54 53 53 53 52 52 53 54 55 56 58
37 38 38 39 40 40 42 42 43 42 42 45 45 45 43 47 45 50 53 55 54 54 55 55 54 54 53 53 53 53 53 54 56
34 35 36 36 37 38 39 39 41 41 41 43 41 45 46 42 41 40 45 47 51 50 51 53 53 54 54 54 53 53 53 54 56
29 31 32 32 34 36 38 38 39 41 41 41 42 43 44 43 43 42 41 44 43 45 47 49 50 52 54 55 55 55 54 55 57

GFSFLT1_sfc_30mbdewp_006.txt.gz
Dewpoint
60 60 59 58 59 58 58 58 58 58 59 59 59 56 60 58 55 51 52 56 56 57 57 57 57 59 61 60 59 58 55 54 54
62 61 60 59 58 59 58 58 58 58 58 58 57 57 57 57 56 52 49 53 56 59 58 56 57 57 58 58 57 57 55 54 53
64 63 61 60 59 59 56 59 60 60 60 59 58 58 58 55 56 54 51 51 56 58 59 56 57 57 56 56 56 56 56 54 53
63 63 61 62 61 61 59 59 60 61 61 60 59 59 59 56 53 53 53 51 53 57 57 58 58 58 57 56 56 55 55 55 54
61 61 62 62 62 61 59 59 58 59 60 59 60 59 59 53 52 52 52 55 56 55 55 57 58 57 57 57 57 56 55 56 55
58 59 61 62 61 61 61 60 59 61 61 60 60 60 54 49 48 48 50 54 58 58 56 56 57 58 58 59 58 57 57 55 56
59 60 61 62 62 62 62 61 61 61 56 55 58 56 53 52 51 49 51 53 55 55 57 56 56 57 57 58 59 58 57 57 56
57 57 57 57 59 58 57 57 56 55 55 55 55 55 55 54 53 52 53 53 56 55 54 56 57 55 56 57 58 60 60 59 58
57 56 57 57 57 57 57 57 57 57 56 56 55 55 55 55 54 53 54 54 56 57 56 53 53 56 56 56 57 60 61 61 60
58 58 58 58 58 58 58 58 57 57 57 57 56 56 56 55 55 55 55 55 55 57 57 57 55 53 54 55 56 59 61 62 61
59 59 59 59 59 58 58 58 58 57 57 57 57 57 56 56 56 56 56 56 56 56 58 58 57 57 55 53 56 57 59 61 62
59 59 59 59 59 59 59 58 58 57 57 57 56 56 56 55 56 56 56 56 56 56 56 58 59 58 58 57 56 58 58 59 60
59 59 59 59 59 58 57 56 56 55 55 55 55 56 56 56 55 55 55 55 55 55 57 56 57 59 59 59 58 59 59 59 59
59 57 55 53 54 54 53 53 53 53 53 53 53 53 54 54 55 55 55 54 54 54 54 55 56 56 56 58 59 60 60 60 60
46 44 42 43 43 42 42 42 43 43 45 45 45 48 48 50 51 52 53 54 55 54 55 54 54 55 55 55 56 58 60 61 60
39 38 38 38 38 38 38 38 38 37 38 37 38 38 41 44 41 52 47 46 49 52 53 55 55 55 55 56 55 56 57 59 60
35 36 36 36 36 36 37 37 37 35 36 36 36 33 36 35 38 39 38 39 41 48 53 53 53 54 55 56 56 56 56 57 58
32 32 31 31 32 32 32 32 33 32 31 34 33 32 32 37 36 37 36 38 38 39 42 44 44 46 48 52 54 55 55 55 56
24 25 26 25 26 26 27 26 29 30 29 30 31 33 33 34 35 34 35 34 37 36 38 39 39 40 42 46 51 53 55 56 56
19 19 20 20 20 22 23 22 25 27 26 25 29 31 32 32 33 32 28 29 28 29 31 35 38 39 43 46 49 51 51 52 53

GFSFLT1_sfc_30mbdewp_009.txt.gz
Dewpoint
61 60 59 59 59 59 58 58 58 57 58 58 58 58 59 59 55 54 50 51 54 57 58 57 57 58 58 61 60 59 58 57 55
63 62 60 59 59 59 57 58 59 59 59 59 58 57 59 55 53 54 54 50 51 55 58 58 58 58 57 57 58 58 58 58 54
64 63 61 60 60 60 59 59 59 61 62 61 60 59 60 55 52 54 54 53 51 54 57 57 58 57 58 57 57 57 57 57 56
63 64 62 62 62 62 61 59 59 59 60 61 60 60 60 57 53 52 52 53 54 53 55 57 58 57 58 59 57 57 57 56 56
61 60 62 62 62 61 60 60 59 59 60 60 61 61 61 56 54 52 52 54 54 55 55 55 56 57 58 58 59 58 57 57 56
57 58 58 60 61 61 61 61 61 61 61 60 60 61 57 54 51 48 48 52 53 55 57 57 56 57 58 60 60 60 58 57 57
56 57 59 61 62 62 62 62 62 62 58 56 60 58 56 54 53 52 52 52 52 54 56 56 57 57 57 58 59 59 60 60 59
55 55 56 58 59 60 58 59 59 56 56 56 55 54 54 54 54 54 54 54 53 55 56 57 56 56 57 57 57 59 60 61 62
55 55 56 57 57 57 57 57 57 57 56 56 55 55 55 55 55 55 55 56 56 56 57 59 58 57 55 57 57 59 60 61 62
58 57 57 58 58 58 58 58 57 57 57 56 56 56 56 56 56 56 56 57 58 57 57 58 60 59 58 56 57 59 60 60 61
59 59 59 58 59 58 58 58 57 57 56 56 56 55 55 55 55 56 56 57 58 59 59 59 59 61 61 59 59 58 59 60 60
59 59 58 59 59 58 57 56 55 54 53 52 52 53 53 54 54 54 55 56 57 59 60 59 59 59 60 61 61 61 60 59 60
59 58 57 54 53 52 51 49 47 47 47 47 49 49 49 49 50 52 53 54 55 55 58 59 59 58 58 59 60 61 61 61 60
51 46 43 43 43 41 40 39 39 39 39 39 40 39 43 45 45 46 50 51 54 55 55 56 57 58 58 57 58 58 60 61 61
41 39 38 37 38 38 38 37 39 38 38 36 36 39 38 39 40 44 42 40 39 40 42 49 54 56 58 59 58 58 58 58 60
37 36 36 36 36 36 35 34 34 34 34 33 35 34 36 33 37 34 35 37 39 38 41 45 46 50 54 56 56 56 58 57 58
32 32 31 31 32 31 30 30 30 29 30 29 30 28 29 30 32 33 35 33 38 34 38 39 38 40 42 44 47 53 53 53 52
25 25 24 24 26 26 26 25 27 28 28 27 25 24 24 29 31 30 31 29 28 32 30 32 33 34 34 36 38 44 49 51 52
19 18 20 20 21 21 23 20 24 26 24 25 22 24 24 26 25 25 27 25 22 24 27 26 26 29 35 37 38 46 48 47 47
17 16 17 17 19 19 20 21 22 25 23 20 22 22 25 25 21 19 20 20 20 23 24 27 29 32 34 38 37 40 42 41 42

GFSFLT1_sfc_30mbdewp_012.txt.gz
Dewpoint
62 60 60 59 59 59 58 58 59 59 59 58 57 57 58 60 56 55 55 52 52 55 58 59 58 58 58 59 61 61 59 59 58
63 62 60 60 59 59 57 56 58 60 61 60 60 59 59 58 55 54 54 55 51 52 56 58 58 58 58 58 57 58 59 58 58
64 63 62 60 60 60 60 59 59 59 61 62 61 61 60 59 56 54 54 55 55 53 53 56 58 58 57 58 58 57 57 57 58
64 64 62 61 62 62 62 61 59 58 59 60 61 62 61 60 58 55 53 55 56 55 56 55 56 58 58 58 59 59 57 57 58
62 62 62 62 62 62 60 60 61 61 60 61 62 62 62 61 58 56 54 54 54 54 56 56 56 56 57 59 60 60 60 58 58
59 60 61 60 61 61 61 61 61 62 62 62 61 61 61 58 56 54 53 56 52 52 54 56 57 57 57 57 60 61 60 60 60
56 57 57 58 60 61 62 62 63 63 62 60 59 61 60 58 56 54 54 55 54 53 54 56 57 58 58 57 58 58 61 61 62
56 57 58 58 60 60 60 62 63 61 60 58 57 57 58 56 55 55 56 57 56 56 57 58 58 59 59 58 58 58 60 61 62
56 56 57 58 58 59 58 59 58 58 58 57 57 56 56 56 56 56 56 57 59 58 58 59 59 59 60 60 59 60 60 61 61
59 59 59 59 59 59 59 58 58 58 57 57 56 55 56 55 56 56 56 58 60 60 59 59 60 60 59 61 62 62 60 60 61
60 60 60 59 59 59 58 58 56 55 54 52 52 52 52 52 53 54 54 55 58 60 60 59 60 60 60 59 60 62 62 62 61
60 59 57 56 56 54 50 48 47 47 46 46 50 50 50 51 51 51 51 53 54 57 59 59 58 58 58 59 59 59 61 61 62
52 47 43 45 43 42 40 40 40 40 40 41 39 39 38 40 44 43 45 46 42 43 46 53 55 56 57 57 57 58 59 60 61
42 41 39 40 41 40 39 38 40 38 38 36 34 37 39 37 38 39 33 33 36 39 41 43 46 50 52 52 55 56 57 58 59
39 39 37 38 38 37 34 33 33 34 34 30 34 32 33 35 34 31 29 33 36 35 37 36 42 42 43 43 44 46 49 51 56
33 34 33 32 33 32 30 30 30 30 30 31 27 30 29 28 27 26 32 32 31 29 30 35 29 31 36 37 37 37 37 39 45
26 26 27 26 29 27 27 27 28 29 29 26 26 24 24 25 26 29 29 29 27 25 28 22 22 28 27 28 34 37 41 42 46
21 23 23 23 26 24 24 24 25 27 27 26 23 23 22 23 26 26 27 20 23 23 20 21 24 24 27 30 32 34 42 42 44
19 20 21 21 23 22 22 22 23 26 25 26 23 23 23 21 22 24 20 22 19 20 22 22 26 25 26 31 34 38 33 35 36
18 19 19 19 20 20 20 20 21 23 24 24 23 22 22 20 19 20 18 19 19 23 22 27 25 24 23 19 25 31 28 30 33

GFSFLT1_sfc_30mbdewp_015.txt.gz
Dewpoint
65 60 60 60 60 59 58 58 59 59 60 60 59 58 57 60 57 55 55 56 55 52 57 59 59 58 58 58 60 62 62 60 59
63 62 61 60 60 59 58 57 58 59 61 62 61 61 60 59 57 55 54 53 57 56 54 56 58 59 59 58 58 58 59 60 58
64 63 61 61 60 60 60 60 60 58 60 61 62 62 62 60 59 57 55 55 56 58 56 54 56 58 58 59 58 59 58 58 59
63 64 63 62 61 62 62 62 60 60 60 60 61 62 63 62 60 58 56 55 56 56 57 57 57 56 57 58 59 59 59 59 58
63 65 63 62 62 62 61 60 61 61 61 61 62 63 63 62 61 59 57 58 57 56 55 56 57 58 57 57 58 59 59 59 61
60 62 61 63 61 61 61 61 62 63 63 63 63 62 61 60 59 58 57 58 58 57 56 57 55 57 59 59 58 58 58 60 60
58 59 60 59 60 61 62 62 63 64 63 61 61 60 60 60 58 57 58 59 57 57 59 58 58 57 58 59 60 59 58 58 60
56 56 57 57 58 59 60 60 61 62 61 61 59 58 58 59 58 57 57 59 58 58 60 60 60 60 59 60 61 62 60 60 61
56 56 57 58 59 59 59 59 59 58 58 58 57 56 56 57 57 57 57 58 59 59 60 59 60 60 61 61 61 62 62 62 62
59 59 60 59 59 59 58 57 56 53 52 50 49 50 51 51 51 52 53 53 54 55 56 57 59 59 60 60 61 61 61 61 62
60 59 57 56 55 48 46 43 44 42 42 40 43 44 42 41 43 47 49 51 53 48 48 53 56 57 57 58 58 59 60 60 61
55 45 44 45 42 40 39 40 40 39 39 39 39 37 37 39 39 40 41 37 36 42 44 44 46 49 51 53 55 57 58 59 59
42 39 39 41 40 38 37 38 35 35 36 33 31 34 36 35 35 34 29 30 35 37 40 38 44 44 43 45 46 48 49 53 52
39 37 36 38 37 34 33 32 31 32 30 28 32 26 30 33 32 28 25 31 35 33 33 35 36 33 34 36 38 39 39 39 40
34 32 30 34 32 30 29 27 28 30 29 30 25 24 31 30 26 20 27 34 28 30 26 31 24 26 28 32 32 33 35 35 40
27 28 26 30 28 27 27 26 27 27 29 29 21 27 27 25 19 22 27 26 27 21 27 20 18 19 27 29 32 34 30 37 39
23 24 23 25 25 24 24 24 24 29 28 25 25 20 20 20 20 24 19 25 19 24 17 20 21 23 27 28 24 28 33 39 39
21 22 21 24 24 21 22 22 22 25 27 25 22 19 19 19 24 16 22 15 20 18 22 22 21 25 25 24 25 27 27 32 35
20 20 20 21 22 19 20 21 21 21 20 22 25 23 22 19 18 22 16 21 19 20 21 21 25 23 23 20 21 24 26 30 32
19 18 19 18 19 18 18 18 17 19 20 20 21 20 20 21 18 16 17 19 19 20 20 24 21 22 19 20 21 20 25 29 30

GFSFLT1_sfc_30mbdewp_018.txt.gz
Dewpoint
61 60 61 60 60 59 58 58 59 59 60 60 60 60 60 60 58 56 55 56 56 58 55 59 59 60 59 59 60 61 63 63 62
64 62 61 61 60 60 58 58 58 59 60 61 61 62 62 61 59 57 55 55 57 58 58 55 58 59 59 59 59 59 59 59 59
64 63 61 61 60 60 60 60 61 60 59 60 61 62 63 62 60 59 57 57 57 58 58 58 56 56 57 59 58 59 58 59 59
64 64 63 62 61 61 62 62 61 60 61 61 60 62 63 63 61 60 59 58 59 57 57 57 58 58 58 57 57 57 59 57 60
63 66 65 63 62 62 62 61 60 61 62 62 63 63 62 62 61 60 59 60 61 60 59 57 57 57 58 59 59 58 58 57 59
60 64 62 63 63 62 61 62 62 63 63 63 63 63 62 61 60 59 59 60 61 60 60 60 58 56 58 60 60 60 60 59 58
58 59 61 62 62 61 62 63 63 64 63 62 62 61 60 60 60 59 59 61 61 61 61 61 61 60 59 60 60 60 61 62 61
58 58 58 59 58 58 59 59 59 60 61 61 60 58 58 58 58 58 58 59 57 55 56 59 60 60 60 60 60 61 61 62 62
56 56 57 58 59 59 59 58 53 48 48 48 47 49 50 49 51 51 52 54 54 53 54 56 59 60 60 60 60 61 62 62 62
59 60 59 58 55 49 43 44 43 41 41 40 41 40 39 40 41 44 48 43 43 46 48 50 52 53 55 55 56 58 59 59 59
56 49 46 43 42 41 40 40 38 37 37 36 35 34 35 37 36 38 34 38 42 38 43 45 47 52 50 51 51 51 52 53 54
42 42 42 41 39 37 36 34 34 33 32 29 30 31 29 33 36 31 27 32 38 39 39 38 43 40 42 43 44 45 46 45 45
39 38 39 37 34 33 31 30 30 28 29 27 30 25 28 33 29 24 24 32 33 33 32 37 32 32 32 36 39 40 39 39 40
34 33 35 33 30 29 28 26 30 26 26 27 29 22 27 33 23 18 24 32 28 27 29 27 24 25 30 33 34 36 38 38 36
29 28 31 29 26 26 24 24 27 28 27 29 23 21 29 25 17 20 24 26 25 23 24 20 20 25 28 27 33 35 33 32 34
25 25 27 27 25 24 24 24 23 27 27 25 22 24 26 19 14 21 18 25 18 22 19 20 20 23 24 30 31 30 28 32 31
23 23 24 25 22 21 22 22 21 26 27 21 26 18 20 20 14 21 18 18 16 23 19 21 21 21 25 27 26 26 25 28 33
21 21 22 22 22 19 21 21 20 19 23 24 17 13 15 17 21 15 19 16 19 19 21 22 21 22 23 24 24 24 26 25 28
19 20 20 20 20 18 19 20 19 19 18 22 21 22 20 14 14 20 17 18 15 20 20 20 22 22 22 23 23 23 22 26 31
17 17 17 17 19 18 17 17 15 18 18 18 20 20 19 18 18 15 13 13 16 18 18 22 20 20 23 22 21 20 24 28 30

GFSFLT1_sfc_30mbdewp_021.txt.gz
Dewpoint
58 60 60 60 59 58 58 58 58 59 60 61 61 61 61 61 58 57 56 56 56 57 58 58 60 59 60 59 59 60 62 63 63
61 61 61 61 60 59 58 58 59 59 59 60 60 60 63 62 60 59 58 56 58 57 58 59 56 60 60 59 58 58 57 58 59
64 63 62 61 61 60 60 61 61 61 61 60 60 61 62 62 61 60 59 59 60 58 58 59 60 57 57 57 58 57 59 59 59
64 64 63 62 62 61 61 62 61 60 61 62 62 62 63 63 62 61 60 60 61 61 59 59 59 59 59 59 58 58 58 57 59
63 65 65 64 62 62 62 62 61 62 63 63 64 64 64 63 61 60 60 61 62 62 62 61 60 59 59 60 60 60 60 59 58
60 65 64 64 63 63 62 62 63 63 63 63 63 63 62 61 60 60 60 61 62 62 63 62 61 61 60 60 61 60 61 61 62
58 59 61 62 63 63 62 63 62 60 61 61 61 59 58 58 59 58 58 58 58 58 57 58 59 60 61 61 60 60 61 62 62
57 57 57 59 58 57 59 59 57 52 52 49 47 48 46 46 49 49 54 52 53 53 53 55 58 60 61 60 60 61 62 62 63
56 56 57 59 59 57 50 45 43 41 40 41 40 39 39 40 41 46 45 46 49 49 51 53 53 55 56 56 58 58 58 59 60
59 58 52 46 43 42 41 40 38 36 36 36 33 33 33 34 39 32 41 44 41 45 48 46 52 50 50 50 51 51 52 52 53
48 44 42 41 40 39 37 35 34 31 30 27 30 28 28 35 32 24 31 40 40 39 41 45 43 42 42 43 45 46 46 46 46
43 42 39 37 36 33 29 29 29 25 26 24 28 26 28 34 21 22 28 33 34 32 39 36 35 34 35 39 40 41 42 43 44
39 38 35 32 30 28 26 28 26 23 24 22 27 24 26 32 17 21 24 30 28 28 30 28 28 30 33 35 36 39 39 40 38
35 34 31 28 26 25 24 24 29 23 21 21 25 22 25 27 17 20 21 27 22 23 24 25 25 26 30 31 35 37 38 36 35
29 29 27 25 24 23 21 22 24 28 23 23 20 22 29 20 15 20 18 24 17 21 21 20 22 24 26 29 33 34 33 32 33
24 26 25 24 22 22 21 21 21 23 26 22 20 23 26 21 16 22 17 19 16 23 20 18 21 23 24 28 26 28 30 30 33
22 24 23 22 19 19 20 19 18 20 25 20 24 14 14 19 13 18 19 17 17 21 16 19 21 21 23 25 23 26 27 29 31
21 21 21 20 20 18 20 19 17 16 19 24 12 7 11 18 18 11 19 14 19 16 17 21 20 21 24 21 24 25 25 27 30
20 20 19 19 19 17 17 18 17 18 16 20 18 20 20 13 13 18 13 17 14 16 19 20 20 23 21 22 25 24 23 26 30
17 17 17 17 18 17 15 15 13 17 16 16 18 19 17 19 18 11 15 13 11 12 16 19 21 20 19 23 24 21 24 27 29

GFSFLT1_sfc_30mbdewp_024.txt.gz
Dewpoint
60 60 60 60 59 58 58 58 58 59 60 61 61 61 61 61 60 58 58 58 57 56 58 59 60 60 60 60 60 58 60 62 63
60 61 61 61 60 59 59 58 59 60 60 60 60 61 63 63 61 60 59 58 60 59 57 59 59 57 59 62 56 57 58 57 57
63 62 62 61 61 61 60 61 61 61 61 61 61 61 62 62 61 61 60 60 62 61 59 59 59 60 58 57 58 58 58 58 60
65 64 63 62 62 61 61 62 62 61 62 63 63 63 63 63 62 61 61 61 62 63 62 61 60 60 60 61 60 60 60 59 59
63 65 64 64 63 63 63 63 62 63 63 63 64 63 63 61 61 60 60 62 63 63 63 63 62 62 61 61 61 61 61 61 61
60 64 65 65 64 63 63 63 64 62 62 62 61 60 59 59 59 58 58 59 60 60 61 59 60 61 62 63 61 61 61 61 62
58 59 61 62 62 62 60 61 60 57 56 51 50 48 46 48 49 52 53 54 55 55 55 56 58 60 61 61 61 62 62 62 62
57 57 57 57 58 58 59 48 44 42 42 42 40 39 40 38 44 46 49 50 51 52 54 54 55 57 58 59 59 58 58 59 60
56 56 58 58 56 45 44 41 38 36 36 35 33 31 33 36 35 38 48 45 47 50 50 51 54 52 52 52 52 53 53 54 54
59 54 45 43 42 41 37 35 32 29 28 28 30 22 30 36 26 30 43 42 43 44 47 49 47 45 45 45 48 48 48 48 48
46 43 41 39 37 34 32 30 26 25 24 24 29 21 34 25 21 27 31 37 36 42 41 41 39 40 42 44 43 43 45 45 46
43 40 36 34 32 27 27 28 23 21 21 19 27 22 30 21 20 23 27 30 32 36 35 35 35 36 37 40 39 41 42 43 42
39 35 31 28 26 25 24 27 23 20 19 17 23 22 26 23 16 22 26 26 21 27 30 29 28 30 32 34 36 39 40 40 39
34 30 27 25 22 22 22 22 27 20 18 17 21 21 23 22 15 21 20 21 18 23 24 24 25 26 29 31 34 36 36 37 37
28 25 24 23 20 18 18 18 22 26 23 20 15 24 29 20 16 22 17 20 17 22 21 18 22 23 24 28 31 31 32 34 35
25 24 22 22 19 19 18 19 17 20 24 16 16 21 23 24 20 17 17 19 16 20 19 14 19 22 23 25 26 27 30 32 33
23 21 20 19 18 18 18 15 14 17 24 15 20 10 10 15 12 17 17 17 17 19 14 14 18 21 21 26 23 24 28 30 32
21 20 19 19 19 17 18 16 15 12 17 23 11 4 6 17 17 15 19 14 16 16 15 17 19 20 20 25 23 25 26 28 30
20 19 18 18 18 16 17 16 17 16 14 16 17 18 20 11 11 15 13 16 14 14 14 15 18 20 22 22 23 24 24 27 30
17 17 16 16 17 16 14 14 13 16 14 15 16 17 17 18 18 10 13 13 13 14 14 17 16 17 20 21 24 23 25 27 29

GFSFLT1_sfc_30mbdewp_027.txt.gz
Dewpoint
59 60 60 59 59 58 58 58 58 59 60 61 61 61 62 62 61 60 60 60 59 59 57 58 59 62 60 60 60 60 59 60 63
61 61 61 61 60 59 59 59 60 61 61 61 61 61 62 61 61 61 60 60 62 62 60 58 59 59 58 59 62 56 57 58 59
62 63 62 62 61 61 61 62 62 62 62 62 63 63 63 61 60 61 61 61 62 63 62 61 60 60 61 59 58 58 58 59 59
64 64 63 62 62 62 62 63 63 63 63 63 64 64 63 62 61 61 61 61 63 63 63 63 63 62 61 61 62 62 61 61 61
64 64 64 64 64 63 63 63 64 64 64 63 63 62 61 60 60 59 58 61 62 63 62 62 61 63 63 63 62 61 61 61 62
60 64 65 64 64 64 63 62 62 61 59 56 55 53 53 53 52 53 56 56 57 58 58 58 59 60 61 62 62 62 62 62 62
58 59 60 60 61 60 61 56 48 46 46 44 42 42 41 42 46 48 51 52 54 54 56 56 56 59 60 60 60 60 61 62 62
57 57 57 58 58 59 47 43 41 41 40 38 36 35 36 40 36 48 50 49 50 52 51 55 55 54 54 55 55 55 56 56 55
57 57 59 53 46 43 42 38 35 33 31 31 27 24 33 32 31 46 45 48 49 48 52 51 49 48 48 49 51 51 51 51 51
59 50 44 43 41 39 36 32 27 25 24 28 25 26 35 26 28 36 42 41 43 47 47 45 45 45 46 47 46 46 47 48 49
47 43 41 38 34 32 30 25 23 21 20 24 26 24 30 19 27 26 34 40 42 41 41 41 40 40 41 43 43 43 45 45 46
43 39 37 34 29 26 28 25 22 20 18 18 25 21 31 19 22 26 27 24 33 36 36 34 33 34 35 38 39 40 41 42 42
39 35 31 28 27 25 24 26 23 20 19 17 22 21 27 19 21 22 25 22 22 28 31 27 27 29 31 34 36 37 38 39 40
34 30 26 24 23 23 20 22 25 19 18 17 19 22 25 20 20 19 23 21 21 23 24 22 22 24 27 30 33 35 35 36 38
29 27 23 22 21 19 20 18 23 22 21 18 16 26 30 22 20 20 16 21 19 21 21 17 15 19 25 27 29 31 32 33 35
26 24 22 22 20 19 17 20 18 20 21 16 17 20 21 25 24 16 18 20 19 20 18 13 13 14 21 22 24 28 30 31 33
24 22 21 21 20 19 17 18 17 18 22 14 17 12 10 16 12 18 18 17 17 15 14 13 13 15 16 19 23 24 27 30 33
22 21 20 21 22 20 19 19 17 15 20 19 8 8 7 14 16 14 17 14 14 13 14 14 12 14 16 19 21 24 26 28 31
21 21 20 20 20 19 18 18 19 17 15 18 16 16 15 10 8 14 13 15 12 14 14 13 13 15 16 19 21 23 26 28 31
20 19 20 19 18 17 16 16 17 17 14 15 15 15 15 16 14 8 10 12 13 15 14 14 14 14 17 18 19 23 25 28 30

GFSFLT1_sfc_30mbdewp_030.txt.gz
Dewpoint
59 61 61 59 59 58 59 58 59 60 60 60 61 62 63 62 58 58 58 58 61 61 59 58 59 60 62 61 60 61 60 60 62
61 62 61 60 60 59 60 61 61 62 62 62 62 61 62 59 58 58 59 59 62 62 62 61 59 60 60 59 59 61 59 58 58
63 63 62 61 61 61 61 62 63 62 62 63 63 63 63 60 59 60 60 61 62 64 63 62 63 61 61 61 61 59 59 59 59
63 64 63 62 62 62 62 63 63 63 64 64 64 64 63 60 58 60 58 62 63 64 64 63 63 63 63 62 62 62 62 62 61
65 64 64 63 64 64 64 64 64 64 63 61 61 59 59 56 57 56 55 58 59 60 59 60 60 61 61 63 63 62 63 62 62
60 65 65 63 63 63 62 62 61 58 55 51 48 49 51 51 51 52 53 55 57 56 58 57 58 60 62 61 62 62 63 63 63
56 60 60 60 60 60 57 51 47 47 48 46 44 45 44 45 46 49 54 54 53 55 53 59 57 57 57 57 57 58 58 58 57
55 57 56 58 58 58 49 44 45 44 43 42 39 37 38 40 38 48 49 51 54 52 56 55 52 51 51 53 54 53 53 53 53
55 56 58 56 52 47 43 42 40 36 33 32 28 26 31 29 32 43 46 46 48 51 52 49 48 48 48 50 49 49 50 51 51
57 56 51 47 43 41 41 37 33 28 24 25 23 23 29 25 28 34 42 44 47 46 46 45 44 44 45 46 46 45 47 48 48
54 46 43 39 37 35 34 29 24 21 19 21 23 19 26 22 27 27 35 42 41 42 41 39 38 39 39 40 41 42 43 44 45
48 43 40 34 30 30 28 24 21 20 19 18 21 20 24 22 22 25 23 25 36 37 36 33 32 33 34 36 37 39 40 41 41
44 40 35 31 28 26 24 24 23 21 20 19 20 20 20 22 21 23 21 22 20 28 31 29 28 29 30 32 35 36 38 39 38
39 35 31 27 25 25 20 23 21 20 20 17 16 20 23 25 20 19 21 22 22 21 22 22 20 22 27 31 33 34 35 36 37
34 30 25 25 24 22 21 20 21 20 19 18 17 24 27 23 22 21 16 19 20 20 21 20 14 16 22 26 29 31 33 35 35
29 27 24 24 23 21 19 19 20 20 19 18 17 19 19 22 24 23 16 19 18 18 15 13 13 13 17 20 25 29 30 32 34
28 26 24 23 22 21 19 19 19 19 19 14 18 14 13 15 19 17 16 13 15 14 13 14 14 14 15 17 23 24 28 31 33
25 25 23 24 23 22 21 20 18 17 19 17 9 10 12 11 13 15 13 14 12 13 15 15 14 14 15 17 18 22 26 29 32
23 23 22 22 21 21 19 18 17 15 15 17 13 13 11 10 9 12 12 12 12 14 15 14 14 14 14 16 19 21 25 28 31
22 22 21 20 19 19 17 18 16 15 12 14 14 13 14 12 12 10 10 11 12 14 14 15 14 13 14 16 18 21 25 28 30

GFSFLT1_sfc_30mbdewp_033.txt.gz
Dewpoint
61 61 59 59 59 59 59 59 60 61 61 61 61 61 62 61 58 57 58 58 61 62 61 60 58 60 61 63 62 61 61 60 60
61 62 61 60 59 60 61 61 62 62 62 62 62 62 62 60 57 57 58 61 62 63 63 62 62 61 61 61 60 60 61 61 58
62 63 62 61 61 61 62 63 63 63 63 63 64 64 63 60 59 58 58 62 62 64 64 64 64 64 63 62 62 62 60 60 60
64 64 63 62 62 62 63 64 64 64 64 64 63 63 63 60 56 57 57 59 60 62 61 61 61 62 62 63 64 63 64 64 63
65 65 63 63 63 64 64 64 63 63 62 60 58 58 59 56 54 54 55 58 58 59 60 59 60 62 62 62 63 63 63 63 63
62 64 65 64 63 63 62 61 61 58 54 49 47 49 49 49 50 52 56 55 56 58 56 60 60 59 59 59 59 60 60 60 59
58 62 62 62 61 61 56 51 48 50 49 48 46 46 46 45 45 50 51 52 52 55 57 57 55 54 54 55 55 56 56 56 56
55 58 57 59 59 58 52 49 47 46 45 44 42 36 36 36 36 48 49 51 51 53 55 52 51 51 51 52 52 52 52 53 53
53 54 56 57 55 52 48 46 43 40 36 33 29 27 31 31 30 45 45 46 51 53 50 49 48 48 48 49 48 48 49 50 50
54 55 55 52 49 47 46 43 39 34 27 26 26 23 27 26 27 39 46 47 47 47 46 44 43 43 43 43 44 44 44 46 46
56 54 50 46 44 42 40 35 30 25 23 22 22 22 23 23 26 27 40 43 42 42 41 39 38 37 37 38 39 40 41 42 43
55 50 46 41 38 36 34 28 25 25 23 22 21 22 21 24 23 25 26 35 38 38 35 33 33 34 34 35 36 38 39 40 41
52 47 42 38 35 33 28 28 27 24 23 22 21 22 22 23 21 24 24 23 22 34 30 28 29 28 30 34 36 37 37 39 39
48 43 40 36 32 29 25 26 24 23 24 21 18 21 25 25 20 21 23 23 23 23 28 23 25 22 24 29 33 35 36 37 38
45 40 35 32 30 27 25 25 25 23 22 21 21 24 25 26 23 22 21 19 22 22 23 23 19 17 20 25 28 32 35 35 36
38 33 31 29 28 26 24 24 25 24 22 22 23 23 21 21 23 25 22 19 21 19 18 18 18 18 19 20 24 29 31 33 35
33 30 30 29 27 25 24 25 24 23 22 18 21 20 19 18 22 19 17 15 16 16 16 17 18 18 19 19 22 23 27 32 34
31 30 29 29 28 27 26 26 23 22 22 19 13 14 17 14 15 17 17 16 16 16 17 18 17 18 18 19 19 22 25 29 33
30 29 28 28 27 26 25 23 22 20 20 20 15 16 14 12 12 15 16 15 14 15 17 17 17 17 18 18 19 21 24 28 31
29 29 27 26 26 23 21 22 20 18 15 16 17 14 16 15 14 14 14 14 15 16 16 16 17 16 17 18 19 20 24 27 30

GFSFLT1_sfc_30mbdewp_036.txt.gz
Dewpoint
61 59 59 59 59 59 60 61 61 62 62 61 61 61 61 61 60 58 59 61 62 63 62 62 60 60 60 61 63 61 61 62 60
62 61 60 60 60 61 62 63 63 63 63 63 63 63 63 61 61 58 62 63 63 64 63 63 63 64 62 61 62 62 60 60 61
63 62 61 61 62 62 63 64 64 63 64 64 64 64 63 61 60 59 59 62 62 63 63 63 63 63 64 64 64 63 63 63 61
64 63 62 62 62 63 64 64 65 64 64 63 62 61 61 61 57 56 58 60 60 61 61 61 62 63 63 63 64 63 64 64 64
65 64 63 63 64 64 64 64 64 63 61 57 55 56 57 57 54 55 57 58 58 59 59 61 61 60 60 60 61 61 60 60 60
64 64 65 65 64 63 63 62 62 59 54 49 47 48 48 48 53 52 54 55 56 56 60 59 57 56 56 57 57 57 57 57 57
63 64 64 64 62 62 58 54 52 54 52 49 47 41 40 44 49 53 53 55 56 56 56 55 54 53 55 54 54 54 54 55 55
61 61 61 60 60 57 54 49 48 44 42 40 35 31 33 35 48 49 48 48 49 57 53 52 51 50 51 51 50 50 51 52 52
56 58 58 59 59 53 49 47 43 40 33 30 29 26 31 30 44 45 49 50 52 52 50 48 47 46 47 47 46 46 46 48 48
54 56 56 51 51 50 48 43 38 29 26 26 25 23 25 24 37 46 48 48 47 48 45 44 42 41 41 41 42 42 43 43 45
56 54 52 50 48 45 39 34 28 26 24 23 22 23 22 23 29 41 45 44 44 43 40 38 37 37 38 38 39 39 41 42 43
54 51 47 44 43 38 32 27 27 27 25 25 23 22 22 24 24 30 34 38 40 37 34 33 33 33 34 36 39 39 39 40 41
52 49 44 38 37 36 31 30 28 26 26 25 23 23 24 22 22 25 26 30 32 35 32 28 27 29 29 32 37 38 39 39 41
50 45 42 38 34 31 28 27 26 25 25 22 19 25 27 27 22 23 24 24 24 24 31 27 27 27 24 28 32 34 37 38 39
47 44 39 34 32 28 28 26 26 25 24 22 23 26 25 28 23 23 22 22 22 22 22 23 22 22 23 26 28 31 34 35 37
44 39 34 32 30 28 26 27 27 24 24 25 23 26 22 25 25 25 25 22 22 22 21 19 19 20 21 21 23 28 30 33 36
37 34 31 31 28 25 25 26 25 24 23 18 21 21 22 21 21 26 17 17 17 18 17 17 18 19 20 21 22 23 27 30 33
35 33 31 29 30 28 27 26 26 24 23 19 16 15 18 14 19 21 19 16 18 17 16 18 18 18 18 20 21 21 24 28 32
38 36 34 32 30 28 26 26 23 23 21 21 18 17 16 13 11 18 17 18 14 16 18 17 18 17 18 21 23 20 23 27 31
33 32 31 30 30 24 23 22 20 19 20 18 19 16 17 17 16 14 15 15 16 17 17 18 18 18 17 18 20 19 23 27 30

GFSFLT1_sfc_30mbdewp_039.txt.gz
Dewpoint
58 59 59 59 59 60 60 61 62 62 62 61 61 61 61 62 60 59 62 61 63 63 62 63 62 60 60 60 62 62 61 62 61
60 60 60 60 61 62 63 63 63 63 63 63 63 63 63 62 61 62 62 63 63 64 62 64 64 64 64 63 62 63 63 61 61
62 60 61 61 62 63 64 64 63 64 64 64 64 64 63 62 59 58 60 63 62 62 62 63 64 64 64 64 64 64 64 64 64
63 62 61 62 63 64 64 65 64 65 64 62 60 59 59 60 56 57 59 61 61 61 60 63 62 61 62 62 62 62 61 62 63
65 64 63 63 64 64 64 64 64 63 61 56 54 52 52 54 55 56 59 58 60 59 62 60 58 58 59 59 59 58 59 59 60
65 64 64 65 64 63 63 63 62 60 54 50 49 46 47 52 52 55 56 54 57 60 58 56 56 57 57 56 56 56 56 57 57
64 64 65 65 63 63 61 59 58 55 52 48 41 35 38 49 51 53 55 56 56 58 55 54 53 54 54 53 52 52 53 53 54
63 63 63 63 62 59 56 51 49 44 42 33 30 31 35 47 48 49 48 49 53 55 53 51 50 50 51 49 49 49 49 50 50
62 61 60 60 59 55 51 48 43 36 29 29 26 24 31 43 43 51 52 52 54 52 49 48 47 46 45 44 44 44 44 45 47
58 58 58 58 58 51 48 42 35 27 24 24 24 22 25 38 44 49 50 49 50 48 45 43 41 40 41 41 41 41 43 43 44
55 56 55 52 50 47 43 34 27 25 24 24 22 22 24 30 42 45 47 46 46 43 40 38 37 37 37 39 41 41 42 42 43
55 53 50 47 45 35 27 27 28 26 25 24 24 22 22 24 34 38 38 42 42 35 34 33 32 33 34 35 39 40 41 42 42
52 50 47 41 39 34 30 30 27 27 25 24 22 24 24 23 26 32 34 34 34 35 32 28 29 31 30 33 35 37 39 41 41
51 47 42 38 35 31 27 27 26 24 23 22 21 25 26 27 23 25 25 25 26 27 31 29 29 25 28 30 33 34 36 38 39
48 45 40 37 31 29 27 25 26 25 22 22 24 27 27 26 22 23 23 24 23 23 23 23 20 24 24 26 28 30 33 35 37
47 43 38 34 29 28 26 27 25 22 23 23 22 27 24 26 25 26 24 23 22 22 22 19 19 19 24 23 24 27 30 32 34
45 40 34 32 29 27 26 26 26 24 22 18 23 19 21 21 21 26 21 18 20 19 17 17 17 19 19 22 22 23 26 29 33
42 36 33 31 29 26 26 27 26 25 22 18 17 18 17 15 20 23 20 16 18 18 18 18 18 18 18 21 21 24 23 26 30
41 35 33 32 31 28 27 26 26 25 22 20 19 17 15 10 8 17 18 18 16 17 17 18 18 18 18 21 26 25 22 25 30
38 36 37 34 33 31 26 23 21 23 22 22 19 17 18 17 15 13 15 15 15 16 18 18 17 18 19 19 21 24 22 25 28

GFSFLT1_sfc_30mbdewp_042.txt.gz
Dewpoint
58 58 59 60 60 61 61 61 61 61 61 61 61 61 63 62 61 59 60 61 63 63 59 63 63 62 61 60 62 63 61 61 63
60 60 60 60 61 61 62 63 63 63 63 63 63 63 63 60 61 61 62 63 64 64 64 64 64 64 65 64 62 62 63 63 61
60 60 61 62 63 63 63 63 63 64 64 64 63 62 61 60 58 59 61 63 63 62 63 64 63 64 64 64 63 63 64 64 65
61 61 62 62 63 64 64 64 64 64 63 61 59 57 59 56 57 58 60 62 61 60 63 61 60 61 60 60 59 60 60 61 62
64 63 63 63 64 65 65 64 64 63 60 55 53 56 56 55 56 57 60 61 59 62 60 59 58 58 57 58 58 57 58 58 59
65 63 64 64 65 64 64 63 63 59 53 51 48 51 52 52 54 56 56 56 59 59 57 56 56 56 56 55 54 54 55 55 56
64 63 64 65 65 64 63 62 59 54 51 44 37 39 49 50 51 54 57 55 59 56 55 54 54 54 53 51 51 51 52 52 53
63 63 64 64 63 61 59 54 50 45 41 31 30 35 47 47 47 50 50 49 57 54 52 51 50 49 49 48 47 47 47 48 49
63 63 62 62 60 57 52 49 43 33 30 27 24 31 42 42 46 54 54 56 55 52 49 47 45 44 43 43 43 44 45 45 45
62 61 60 60 59 54 49 44 33 26 25 25 23 24 36 40 48 51 51 52 51 48 45 43 42 41 41 42 43 43 43 44 45
60 59 59 58 58 52 47 36 28 25 24 23 22 23 27 41 46 47 50 49 46 43 40 38 37 37 37 39 42 42 43 44 44
57 57 56 55 53 46 34 28 27 26 25 24 23 22 24 37 41 43 43 46 42 35 35 33 34 34 35 37 39 39 42 43 43
55 54 54 49 43 32 29 28 27 26 25 23 21 24 23 24 36 35 37 37 35 36 31 30 30 31 33 34 37 38 38 40 41
54 52 49 43 37 32 30 28 26 24 23 22 21 25 26 26 28 30 32 30 31 30 32 31 28 27 27 30 33 34 35 37 38
52 49 44 39 35 30 28 26 26 24 22 22 25 27 28 24 23 25 25 26 24 24 23 23 22 25 24 26 27 30 32 34 36
51 47 41 36 32 29 26 26 24 22 24 24 24 27 24 26 25 25 23 24 23 23 22 19 19 19 25 24 25 26 28 31 33
50 45 40 34 30 28 26 27 26 23 22 21 24 21 21 22 21 26 24 21 22 21 18 17 17 18 20 22 25 23 24 27 31
51 44 40 33 31 28 27 27 27 25 21 19 21 22 21 18 19 23 19 17 19 18 18 17 18 18 19 22 23 26 23 26 29
48 42 38 36 32 28 28 29 28 26 22 19 18 17 16 12 9 17 18 17 16 16 17 19 18 18 19 22 25 28 26 26 29
47 41 38 37 33 33 31 30 28 26 23 23 19 17 18 17 13 10 14 17 16 17 18 18 19 19 19 22 26 27 27 28 30

GFSFLT1_sfc_30mbdewp_045.txt.gz
Dewpoint
58 61 62 62 62 62 62 61 61 60 61 61 61 62 63 61 61 58 59 62 64 62 60 63 63 64 62 60 63 63 62 61 63
59 60 61 61 61 61 61 62 62 62 63 63 63 64 62 60 60 62 62 63 64 64 64 65 65 65 64 63 63 64 64 64 62
60 60 61 61 61 62 63 63 63 64 64 64 62 61 60 59 59 61 62 63 62 62 64 62 62 62 62 62 62 62 63 64 64
61 61 62 62 63 63 64 64 64 64 62 60 57 58 58 57 58 59 61 62 60 63 61 60 59 59 58 59 58 59 60 60 61
62 63 63 63 64 64 65 64 64 62 57 55 59 60 57 56 57 58 62 59 62 61 59 58 58 56 56 57 57 56 56 57 57
63 63 64 64 64 65 64 64 63 57 53 53 57 53 52 53 55 57 57 59 60 58 57 56 55 55 54 54 53 54 55 55 55
64 63 64 65 65 65 64 63 60 52 47 40 41 49 51 51 53 55 57 57 58 56 55 54 55 53 52 51 50 50 51 51 51
64 63 64 65 65 63 61 57 50 48 36 30 34 46 47 47 47 51 50 58 55 53 52 50 50 49 47 46 45 46 47 47 47
63 62 63 63 62 59 55 49 43 35 29 25 29 40 43 42 50 54 57 57 54 52 49 46 45 44 44 44 45 45 46 46 47
62 62 62 61 60 57 51 45 33 27 26 24 24 31 39 45 48 51 54 55 51 49 45 44 42 41 41 43 44 44 45 45 46
62 61 61 60 59 54 49 40 28 25 24 23 22 25 38 44 46 49 52 51 47 44 41 38 38 38 39 40 42 42 44 45 45
62 60 60 59 58 52 41 30 27 25 24 23 22 23 32 41 43 45 47 47 42 38 37 35 36 36 37 39 40 41 41 42 43
60 59 58 56 54 46 33 28 27 26 24 23 22 23 24 35 39 39 42 39 37 36 33 31 31 32 32 34 36 37 38 39 40
57 57 56 52 47 38 31 28 27 25 24 22 21 25 25 24 35 33 34 33 34 32 32 32 29 27 27 30 31 33 35 36 38
56 54 52 47 40 33 30 28 26 25 23 23 24 27 28 25 28 29 29 29 26 25 27 26 22 28 25 24 26 30 31 33 36
54 52 48 44 38 32 29 27 25 23 24 24 25 27 25 25 24 25 25 25 24 23 23 20 19 19 28 27 25 28 28 30 32
54 51 46 42 36 31 27 27 25 23 24 23 24 22 22 23 22 26 24 22 24 22 19 17 18 19 20 24 29 29 27 27 30
55 50 46 40 37 33 28 28 27 25 21 21 26 24 24 20 18 23 20 18 20 18 18 18 18 18 19 22 25 30 31 30 31
55 51 45 42 39 36 34 33 30 26 23 20 18 17 21 19 14 18 19 17 16 16 16 18 18 19 20 26 30 30 30 30 32
54 50 46 43 42 41 38 35 32 30 27 24 19 18 18 16 13 12 15 18 17 17 18 18 19 19 20 21 26 27 29 31 32

GFSFLT1_sfc_30mbdewp_048.txt.gz
Dewpoint
60 63 63 63 63 63 63 62 61 61 61 61 62 63 62 61 59 56 59 62 64 63 64 63 65 65 61 61 63 63 62 61 62
60 62 63 62 62 62 62 61 61 62 62 63 64 62 61 59 60 61 62 63 64 64 64 64 64 64 64 64 64 65 64 65 64
60 61 61 61 61 62 62 63 64 64 64 63 62 61 61 60 60 61 63 63 62 63 63 62 61 61 61 61 61 61 62 63 64
61 61 61 62 62 63 63 64 64 63 61 59 59 60 59 58 59 61 61 61 62 62 60 59 58 58 57 57 57 57 57 59 60
62 63 63 63 63 64 64 64 64 60 56 59 61 60 57 57 57 60 61 62 61 59 59 58 56 56 56 56 56 56 56 56 56
63 63 64 64 65 65 65 65 62 56 55 60 57 54 53 54 56 57 60 61 59 58 57 57 55 54 54 53 53 54 54 54 54
63 62 64 64 65 65 64 64 58 50 44 45 51 50 51 53 53 55 56 59 57 56 55 55 54 52 51 49 49 49 50 50 49
63 62 63 65 65 64 63 58 52 49 35 33 45 48 47 46 47 52 52 58 55 54 52 51 50 48 47 46 47 47 48 48 48
63 62 62 63 63 61 57 50 42 35 28 29 39 44 44 43 51 55 58 57 54 52 49 47 46 45 45 46 46 46 47 47 47
63 62 62 62 61 58 53 46 33 29 26 24 30 39 40 48 49 52 57 56 52 49 46 45 43 42 43 44 45 45 46 47 47
62 62 61 61 60 57 51 42 29 26 24 23 24 34 39 45 47 51 53 52 49 46 43 40 39 39 40 42 42 43 45 45 45
62 62 61 60 59 54 46 33 27 25 24 22 22 26 39 43 44 47 49 47 45 41 38 38 37 36 39 39 40 41 41 41 42
62 61 60 59 58 52 41 32 27 26 24 23 23 23 31 39 41 42 45 39 37 38 35 33 33 34 33 34 36 36 37 38 40
60 60 60 58 56 49 37 30 28 26 24 22 23 25 23 28 37 37 38 35 36 33 32 32 30 28 28 30 31 33 35 35 37
59 58 58 56 52 46 34 30 27 26 24 22 23 27 28 26 32 32 32 32 30 27 30 27 23 31 30 27 28 31 32 32 34
58 57 56 53 50 45 35 28 26 25 25 25 26 27 26 24 25 27 28 26 25 24 23 21 19 19 28 30 29 30 32 31 32
56 56 54 51 47 39 32 29 26 25 26 25 25 23 23 24 23 26 24 24 24 23 20 17 18 19 20 24 31 31 30 32 33
56 55 53 49 45 41 33 30 30 27 24 25 28 25 26 22 20 23 24 20 22 20 18 18 18 18 19 24 27 32 31 31 33
57 55 53 49 46 43 38 37 37 35 29 23 21 20 25 22 18 18 20 18 18 18 17 18 18 19 22 26 30 30 31 32 34
57 56 53 48 45 45 42 40 38 38 35 29 23 20 18 16 17 16 17 18 18 17 17 18 19 19 20 21 27 28 29 30 31

GFSFLT1_sfc_30mbdewp_051.txt.gz
Dewpoint
61 65 65 65 65 64 63 62 61 60 62 62 63 63 63 61 58 60 62 64 65 65 64 65 65 62 61 63 63 63 63 62 62
61 63 62 63 63 63 62 61 61 61 62 64 63 62 61 60 61 63 63 63 64 64 63 63 64 64 64 63 64 64 64 65 62
62 63 63 62 62 62 62 63 63 64 64 63 62 62 61 61 62 63 61 62 61 62 62 61 61 61 60 60 60 60 62 63 63
61 62 62 62 62 62 63 64 64 63 62 61 62 61 60 60 61 61 60 63 62 61 60 59 58 58 58 58 58 58 58 58 59
62 62 62 62 63 64 64 64 63 59 58 59 61 60 59 59 60 60 61 61 59 59 58 57 57 56 56 56 56 56 56 56 56
62 62 63 64 65 65 65 65 59 58 61 61 59 55 55 57 59 59 62 60 58 58 58 56 55 54 53 53 54 53 53 53 52
62 62 64 64 65 65 65 63 55 48 50 55 53 52 53 55 56 57 60 59 57 56 56 56 54 52 50 49 50 49 49 49 49
62 62 63 64 64 64 63 60 52 45 39 44 49 49 49 49 50 52 59 58 56 54 53 52 50 48 48 48 48 49 49 49 49
63 61 63 64 64 63 60 54 48 40 34 38 45 46 45 44 51 54 57 56 54 52 49 48 47 47 47 47 47 48 48 48 48
64 63 62 63 63 61 57 49 41 34 29 32 39 41 41 47 50 56 58 56 53 49 48 46 44 44 45 45 45 47 47 47 47
63 63 62 62 62 60 56 48 37 33 28 26 31 38 42 45 48 54 54 53 50 47 45 42 41 41 42 43 44 45 44 44 45
61 62 62 62 61 59 53 42 32 30 27 26 26 34 40 43 46 51 50 49 47 44 41 41 39 39 40 39 41 41 40 41 42
61 62 62 62 60 57 50 39 32 30 28 26 25 28 38 41 43 47 46 43 41 40 38 35 37 35 34 36 37 36 38 38 39
61 61 62 61 60 56 48 38 33 30 29 27 26 26 28 37 39 41 43 39 39 36 35 34 32 30 30 31 32 34 35 35 36
60 60 61 60 59 56 46 39 32 31 30 21 25 29 29 28 36 36 37 35 36 34 35 33 31 33 32 30 31 32 33 35 34
60 60 60 60 59 56 49 39 33 30 28 28 28 29 28 27 29 34 33 32 30 29 29 25 22 22 30 30 31 31 35 34 35
60 59 59 58 57 55 48 39 32 31 29 29 30 28 27 26 26 28 29 28 28 26 25 22 22 23 22 26 31 30 30 33 34
59 59 58 57 55 53 48 40 37 33 29 29 31 29 30 26 25 25 27 25 26 26 23 21 21 21 22 26 31 33 34 34 36
59 58 58 56 54 53 48 42 40 37 33 30 26 26 29 27 23 21 24 22 23 24 22 20 20 21 25 28 30 30 31 32 34
58 58 57 55 54 53 49 43 41 40 39 38 33 29 25 22 26 22 21 21 20 21 19 20 20 21 22 24 28 29 30 31 32

GFSFLT1_sfc_30mbdewp_054.txt.gz
Dewpoint
65 66 66 66 66 65 64 62 60 62 63 63 63 63 62 59 59 61 63 63 65 64 65 65 62 61 64 64 63 63 64 62 63
64 64 65 65 64 63 61 61 61 62 63 64 63 63 61 57 59 60 61 63 64 64 63 64 64 64 63 63 64 64 65 63 63
63 63 63 64 63 62 62 62 63 63 64 63 62 62 60 59 58 58 59 62 63 62 61 62 61 61 61 60 60 61 62 62 63
63 64 63 63 62 62 63 64 64 64 62 62 63 62 61 57 58 56 59 63 61 61 59 59 59 59 58 58 58 58 59 60 60
63 63 62 62 63 64 64 64 63 60 59 62 62 60 59 57 58 56 61 60 59 60 58 58 57 57 57 57 56 56 56 56 56
61 60 62 61 64 65 65 63 60 61 62 62 59 57 56 56 55 55 61 60 59 59 57 57 55 54 54 53 54 53 52 52 52
57 60 63 63 64 64 65 60 56 54 53 56 55 53 53 52 53 55 61 59 58 57 57 55 53 51 50 50 50 50 50 50 50
57 58 60 61 63 60 63 59 51 47 46 50 49 50 50 49 50 53 60 58 56 55 54 53 50 49 49 49 49 50 50 50 49
56 55 57 59 59 59 59 57 53 47 44 45 46 46 44 42 44 50 59 57 55 52 50 49 48 48 48 48 48 49 49 49 48
58 57 56 57 58 58 58 56 51 47 42 41 42 40 38 39 42 45 58 57 53 50 49 47 45 46 47 46 47 48 47 47 48
59 59 59 58 58 58 57 55 49 44 39 36 37 36 36 38 40 45 55 55 51 49 47 44 43 43 45 44 45 45 44 44 45
59 59 60 60 59 57 57 55 49 43 38 35 32 34 35 37 39 43 47 51 50 48 43 42 41 42 42 41 42 42 40 40 42
58 59 59 60 60 58 56 54 48 43 38 35 32 31 34 35 37 42 43 44 42 43 42 39 38 38 36 38 38 37 38 38 39
59 58 58 59 60 59 56 53 49 44 39 36 32 30 31 34 35 38 41 40 38 37 38 37 37 33 33 33 34 34 36 36 36
59 58 58 58 60 60 57 52 48 45 41 32 30 31 29 30 34 34 38 37 37 35 33 33 31 33 32 31 32 33 34 36 36
61 59 58 58 58 59 58 54 48 42 40 33 33 31 30 29 28 33 34 34 34 33 33 31 27 26 32 31 31 33 35 35 35
61 61 59 58 58 58 59 55 48 46 38 39 39 36 31 28 28 29 31 31 31 29 29 27 25 24 23 27 31 29 30 33 35
62 62 61 60 59 58 59 56 49 46 39 38 43 40 41 31 29 28 29 29 29 28 27 26 24 23 23 26 30 33 34 34 35
62 62 62 61 60 58 58 57 52 50 42 36 34 32 35 33 32 26 28 27 27 28 27 24 23 23 23 28 31 31 31 33 34
61 60 61 61 60 59 58 55 52 51 48 42 36 33 33 30 34 33 27 28 25 25 26 23 22 22 23 25 28 30 30 32 32

GFSFLT1_sfc_30mbdewp_057.txt.gz
Dewpoint
67 68 68 66 66 65 64 62 62 63 63 63 63 63 60 59 58 63 64 64 65 65 65 63 62 65 65 64 64 65 63 62 63
65 66 66 65 65 63 62 61 62 63 64 64 63 62 61 59 59 62 63 64 65 64 64 64 63 63 62 63 64 64 64 64 65
64 65 65 64 64 62 61 62 62 64 64 63 63 61 60 57 55 59 62 63 62 61 61 61 61 61 61 60 61 62 63 63 62
64 64 64 63 63 63 63 64 64 64 63 63 63 61 61 59 55 57 61 62 61 60 59 58 59 59 59 58 58 59 59 60 60
64 64 63 63 63 63 64 65 63 62 62 63 63 60 59 55 55 60 61 60 61 59 59 58 58 57 57 56 56 56 55 55 56
61 60 63 63 64 64 65 63 60 62 62 62 60 59 56 54 53 59 61 60 60 59 58 57 55 55 54 54 53 52 52 52 53
54 60 61 62 65 65 65 62 60 59 56 57 57 56 53 52 52 60 60 59 58 58 57 55 52 52 51 51 51 51 51 51 51
57 59 60 60 63 61 63 60 53 50 51 52 51 50 50 48 49 59 60 58 57 56 55 52 50 50 50 50 51 51 51 50 50
54 55 57 58 59 59 59 59 53 49 47 48 48 49 47 44 46 56 60 58 55 54 52 50 50 50 49 49 50 50 49 49 50
53 53 54 56 57 58 56 56 54 51 47 45 46 45 42 39 41 52 59 57 54 51 50 49 47 48 48 48 49 48 48 48 48
56 55 54 54 55 56 56 56 53 50 46 43 43 42 38 37 39 48 57 56 53 51 49 46 46 47 46 46 47 46 44 45 45
57 57 57 57 56 56 56 55 53 49 45 42 39 40 37 37 37 42 54 54 52 51 47 44 44 44 45 44 44 42 41 41 42
57 58 57 58 58 57 56 55 53 49 45 41 39 37 37 36 36 41 44 51 49 48 45 44 41 43 40 40 40 39 39 38 39
58 58 58 57 58 59 57 55 53 50 46 43 39 36 37 36 35 39 42 43 43 44 44 41 41 39 37 39 37 36 37 37 37
59 59 57 57 58 59 59 56 54 51 47 42 38 37 35 36 36 36 38 40 41 39 39 39 37 35 34 33 33 33 34 36 38
61 60 59 58 57 58 59 58 55 51 48 43 37 37 36 33 34 36 37 38 39 38 37 35 33 35 35 35 34 32 35 36 35
62 61 60 59 58 58 59 58 55 51 48 42 41 40 36 34 32 32 35 36 36 35 34 34 31 29 31 31 32 30 29 33 36
63 62 62 61 59 59 59 59 57 52 47 44 45 44 43 35 33 31 32 33 34 33 32 31 29 27 28 33 30 31 34 34 35
63 63 62 62 62 60 59 59 58 54 49 44 44 45 39 38 33 31 31 32 31 32 32 29 28 27 27 29 33 34 32 32 34
62 62 62 62 62 61 61 59 59 55 52 45 44 41 37 36 40 33 30 30 30 30 31 29 27 26 27 31 32 31 31 31 33

GFSFLT1_sfc_30mbdewp_060.txt.gz
Dewpoint
68 68 68 68 66 64 62 63 63 63 64 63 63 62 61 61 64 65 66 65 65 65 64 65 65 65 65 65 65 65 62 63 61
67 67 66 66 65 63 61 62 63 64 64 63 62 61 61 60 62 63 64 64 64 64 64 64 63 63 63 64 64 64 64 64 65
66 66 66 65 63 62 62 62 63 64 64 63 62 60 61 60 61 63 63 63 61 60 60 61 61 61 60 61 63 63 63 63 63
65 65 65 64 63 63 63 63 64 64 63 63 62 60 60 60 61 62 62 62 61 59 59 59 59 59 59 59 58 59 60 60 60
65 65 64 63 63 64 64 65 64 62 63 62 61 60 59 57 61 61 62 61 60 59 58 58 57 57 57 56 55 55 56 56 56
64 63 63 64 64 65 65 64 62 61 62 61 60 59 58 56 60 61 61 60 60 59 58 56 55 55 54 53 53 53 53 53 53
59 62 63 64 65 65 65 62 61 59 60 58 58 57 57 53 60 61 60 59 59 58 57 54 53 52 52 52 52 52 52 51 52
60 61 60 61 64 65 64 61 57 55 56 56 55 55 51 50 59 61 60 59 58 57 56 52 52 51 52 52 52 51 50 51 51
57 61 60 60 62 61 63 61 57 53 48 53 52 50 49 46 58 61 60 58 57 55 54 51 51 51 51 51 51 50 50 51 50
55 56 59 59 60 60 61 60 57 51 48 47 47 48 46 41 50 60 60 58 55 53 52 51 50 50 50 50 50 49 49 49 49
55 54 56 57 58 59 59 58 56 52 49 46 45 45 42 38 46 59 58 57 55 52 51 49 48 49 48 49 48 46 46 45 46
57 56 56 55 56 56 57 56 55 52 48 45 43 42 39 37 39 57 57 56 54 53 51 48 47 47 47 47 46 44 42 42 43
58 58 58 58 56 56 56 56 55 51 47 44 41 40 39 37 38 44 56 54 52 53 50 47 45 45 46 44 44 42 40 39 40
59 58 59 58 58 58 57 56 55 52 48 44 42 38 38 37 36 41 48 53 51 49 49 48 46 45 42 42 42 40 39 38 37
59 58 58 58 58 59 58 57 56 53 50 45 42 38 38 38 36 37 41 45 47 46 45 44 43 44 40 41 40 38 38 37 38
61 59 59 58 57 58 59 58 56 53 51 45 41 39 37 35 37 36 38 41 41 42 41 40 39 40 39 38 37 37 36 38 37
62 61 60 60 59 58 59 58 57 54 51 45 39 36 37 36 34 35 37 39 40 39 39 37 36 36 37 37 37 36 36 34 35
64 63 62 61 60 59 58 59 58 56 52 46 42 43 41 36 35 33 34 36 38 38 37 36 34 33 34 37 35 34 31 34 37
63 63 63 62 62 61 60 59 59 58 52 49 44 48 43 38 34 33 32 34 35 36 35 34 32 30 33 35 34 33 35 34 35
62 62 61 62 63 62 62 60 60 60 56 50 47 46 42 37 38 33 31 32 32 34 33 31 29 28 31 33 37 38 34 33 34

GFSFLT1_sfc_30mbdewp_063.txt.gz
Dewpoint
67 68 69 68 65 63 64 63 63 64 63 63 62 62 62 63 65 65 66 65 66 65 65 64 65 65 65 65 64 63 63 62 61
67 68 67 66 65 63 63 63 64 64 64 63 62 61 61 61 64 64 64 64 64 64 64 64 63 63 63 65 65 65 65 65 64
67 67 66 64 63 62 62 63 64 64 63 62 61 61 61 61 63 63 62 62 61 61 61 60 61 61 61 62 64 64 63 63 64
66 66 65 64 63 63 62 63 64 64 63 62 60 60 61 61 62 62 62 62 60 60 59 59 59 59 59 59 60 61 61 61 61
66 66 65 64 64 64 64 64 64 63 63 61 60 59 59 61 61 62 63 61 60 59 59 58 58 57 57 56 56 57 57 57 57
65 64 65 65 65 65 65 64 63 62 62 60 59 59 58 59 61 61 62 61 60 59 57 57 56 55 54 54 54 54 54 54 54
63 63 64 65 65 66 65 63 62 60 60 59 59 58 57 60 60 61 61 60 59 58 56 54 53 53 53 53 53 53 52 53 52
61 62 63 64 64 65 65 63 61 58 58 56 56 56 54 60 60 61 60 59 59 58 55 53 53 53 53 53 52 51 52 52 51
60 60 60 61 63 64 63 61 58 54 55 56 53 54 50 57 60 61 60 59 58 57 54 53 52 52 52 52 52 51 52 51 51
60 60 59 60 61 62 63 61 59 55 51 53 52 50 49 50 59 60 59 59 58 55 54 53 52 52 51 52 51 50 50 51 50
57 58 59 59 60 60 61 61 60 56 50 47 46 48 47 41 56 59 59 58 57 54 53 52 52 51 51 51 50 49 49 49 50
55 54 57 58 59 59 59 59 58 56 50 47 45 45 43 39 54 59 58 58 56 55 53 51 50 51 50 51 49 46 46 45 46
57 56 56 56 56 57 57 57 56 53 51 47 44 42 41 38 46 57 57 56 54 55 54 51 49 50 49 49 48 45 43 43 42
59 58 57 58 57 55 56 56 56 54 50 46 43 40 40 38 37 51 56 55 53 53 54 52 50 49 49 48 47 45 42 40 40
60 59 59 58 58 58 57 56 56 54 51 46 43 41 39 39 37 38 53 54 52 51 50 51 49 48 48 46 46 44 42 40 39
60 59 59 58 58 58 58 57 56 54 52 47 43 41 39 38 38 37 40 49 51 49 48 47 45 47 48 45 45 43 42 40 40
64 61 59 59 58 58 58 58 57 56 52 48 41 40 38 37 36 37 37 40 44 46 45 44 42 42 44 42 45 42 40 40 40
64 64 62 61 60 58 58 58 58 57 54 49 46 41 39 38 37 35 36 37 40 41 42 40 39 38 39 40 42 42 39 39 37
63 63 63 63 62 61 60 59 59 58 56 53 49 48 44 39 39 36 37 38 38 40 39 38 36 36 36 39 40 40 37 34 37
63 63 62 62 62 62 62 61 60 60 58 55 52 49 48 42 39 39 37 37 37 38 38 36 35 33 34 37 38 38 36 36 36

GFSFLT1_sfc_30mbdewp_066.txt.gz
Dewpoint
65 68 69 67 65 64 63 63 63 63 63 62 62 62 64 65 64 66 66 65 65 65 65 66 65 65 65 64 63 63 63 61 65
66 69 67 66 64 64 63 63 64 64 63 62 62 62 62 64 64 64 64 65 65 65 64 64 64 64 65 65 65 65 65 65 65
67 67 66 65 64 63 63 63 64 64 63 62 62 62 62 63 63 62 62 63 62 62 61 60 61 61 62 63 64 64 64 64 64
67 67 66 64 63 63 63 63 64 64 63 62 61 61 61 62 62 62 62 62 61 60 60 60 60 59 60 60 60 63 63 62 62
67 67 66 65 64 63 63 64 64 64 63 61 60 60 62 62 62 62 62 62 61 60 59 59 58 58 57 58 58 58 59 59 59
66 66 66 66 65 65 64 64 64 64 61 60 60 59 60 61 61 62 63 61 60 59 58 58 57 56 56 55 55 56 56 56 55
65 64 65 65 66 66 65 65 64 62 60 59 59 58 56 60 60 61 63 61 60 59 57 56 55 54 54 54 54 54 54 53 54
64 63 63 64 65 66 66 64 62 59 58 56 57 57 55 60 60 61 62 60 60 59 56 55 54 54 54 54 53 53 53 53 53
61 61 62 62 64 64 65 62 60 57 57 56 54 54 52 60 60 61 61 61 59 59 55 54 53 54 53 53 52 52 53 52 52
60 60 60 60 62 63 64 62 60 57 53 54 55 53 50 57 60 60 60 60 60 58 56 54 53 53 53 53 52 52 52 52 52
59 59 59 59 60 62 62 62 61 59 55 51 52 52 50 49 58 59 60 60 60 58 56 54 53 53 53 53 51 51 51 51 51
58 59 59 59 59 60 61 61 61 60 56 50 47 47 48 44 54 58 59 59 59 58 55 54 53 53 52 53 51 50 50 50 50
56 56 57 58 58 59 59 59 59 58 57 54 48 45 45 43 43 57 58 58 57 57 56 55 53 53 52 52 51 49 47 47 47
57 56 56 56 57 57 58 58 57 56 54 52 48 45 43 41 38 53 57 57 56 55 56 56 54 53 52 51 51 49 46 45 45
59 58 57 57 57 56 56 56 56 55 54 51 48 45 42 41 39 39 55 56 55 53 53 55 54 52 52 51 51 50 46 44 42
61 60 60 59 58 57 57 56 55 55 53 50 46 43 42 40 39 39 40 54 55 53 52 52 51 51 52 51 50 49 47 44 42
64 62 60 59 59 58 58 58 57 56 53 51 45 46 44 40 39 39 38 40 52 53 51 50 49 47 49 50 50 49 47 46 43
63 63 63 61 59 59 58 58 57 57 55 52 53 45 46 41 39 38 37 38 41 48 51 48 47 45 45 47 47 49 47 44 43
63 63 63 63 61 60 59 59 58 58 56 55 53 49 44 43 42 38 40 41 40 42 45 46 44 42 42 43 43 44 44 43 41
62 62 62 61 61 61 61 60 59 59 58 56 55 53 51 46 43 47 42 42 42 44 43 42 40 40 39 40 42 44 43 41 38

GFSFLT1_sfc_30mbdewp_069.txt.gz
Dewpoint
67 68 69 66 65 64 63 62 62 62 62 63 63 65 66 62 60 66 64 64 66 66 66 66 66 66 63 63 63 63 61 65 65
68 69 67 65 65 63 62 63 63 63 63 62 63 64 65 64 64 65 65 66 65 64 63 63 63 65 65 66 65 63 65 65 65
68 68 66 65 65 63 62 64 64 63 62 62 62 64 64 63 62 62 63 64 63 62 61 61 61 62 63 64 65 65 65 64 64
67 67 66 65 64 64 63 64 64 64 62 62 62 62 63 62 62 62 62 63 61 61 60 60 60 60 60 60 60 64 64 64 63
67 67 66 65 64 64 63 64 64 64 63 62 60 60 63 62 62 61 62 62 61 60 60 59 59 58 59 59 59 59 61 61 61
67 66 66 65 65 64 64 64 65 64 63 61 60 60 61 61 61 62 63 62 61 60 59 58 58 57 56 57 57 57 57 57 57
65 65 65 66 66 66 65 65 65 63 60 58 60 58 58 61 61 62 64 62 61 59 58 57 56 55 55 55 55 55 55 54 55
64 63 64 64 65 65 66 65 63 60 58 57 57 57 56 59 60 61 64 61 61 60 57 56 55 55 54 54 54 54 53 53 54
62 62 62 62 63 64 64 64 62 59 57 56 55 55 55 58 60 60 63 63 61 60 57 55 55 55 54 54 53 53 53 53 53
60 61 61 61 62 62 63 63 61 59 56 55 55 54 53 54 59 60 61 62 61 60 58 56 55 54 54 54 53 53 53 53 52
58 59 60 60 60 61 62 62 61 60 58 55 52 52 52 50 57 59 59 61 61 60 59 56 55 54 54 54 53 52 53 52 52
59 59 59 59 59 59 61 61 61 60 59 57 53 50 51 49 50 58 59 59 61 61 58 57 56 55 54 54 53 52 52 52 52
59 58 58 59 59 59 59 60 59 60 59 58 55 50 47 47 46 53 58 58 59 60 60 58 56 55 54 54 53 52 51 51 51
60 58 57 58 58 58 58 58 59 58 58 58 57 53 48 46 44 45 53 57 58 57 58 58 58 56 54 54 53 53 50 48 48
61 59 57 56 56 57 57 57 57 57 57 56 54 52 49 45 43 41 49 55 57 56 55 56 57 56 55 53 53 53 51 48 47
61 60 59 58 57 56 56 56 56 55 54 52 51 49 47 45 43 42 40 50 56 56 54 54 55 55 55 54 53 52 52 49 46
64 62 61 60 59 59 58 57 56 55 54 53 48 51 50 44 43 41 40 39 50 55 54 53 53 53 52 53 54 54 51 51 48
64 64 63 62 60 59 59 58 57 57 56 54 55 50 48 46 43 41 40 40 40 50 53 53 52 52 50 51 52 53 52 50 49
62 62 62 62 62 60 60 59 58 57 57 54 53 54 48 50 50 42 40 42 41 41 47 52 51 50 49 48 49 51 51 49 47
52 57 61 61 61 61 60 60 59 58 58 56 55 54 53 48 47 49 49 44 43 44 44 45 48 48 48 48 48 50 52 48 48

GFSFLT1_sfc_30mbdewp_072.txt.gz
Dewpoint
67 69 67 66 64 63 61 61 63 63 63 64 65 66 65 61 60 64 62 64 65 66 65 65 66 64 63 64 63 62 63 65 65
69 69 67 66 65 63 62 62 63 64 63 63 64 66 64 64 64 65 65 66 64 64 63 62 63 66 65 65 64 63 65 65 65
70 68 66 65 65 63 63 63 63 63 63 63 65 65 64 63 63 63 63 64 63 62 62 60 60 62 62 64 65 65 65 65 64
68 67 66 65 65 64 63 64 64 63 63 62 62 64 63 61 61 62 62 63 62 61 60 60 60 60 61 60 59 63 64 64 64
68 67 66 65 64 64 63 64 64 64 64 62 60 60 63 61 61 61 62 62 61 60 60 59 59 58 59 59 59 57 60 61 61
67 66 66 66 65 64 64 64 65 64 62 61 60 60 62 61 61 61 63 62 61 60 59 58 58 57 57 57 58 58 57 57 57
66 65 66 66 65 65 65 65 65 64 60 58 60 58 60 60 61 61 63 62 61 60 59 57 57 56 55 55 56 56 55 55 56
64 63 64 64 65 65 65 65 64 62 59 57 56 58 56 56 60 61 62 63 62 61 58 57 56 55 55 55 54 54 54 54 54
62 62 62 62 63 63 64 64 63 61 59 56 55 55 56 55 59 60 61 64 61 61 59 57 55 55 55 55 54 54 54 54 53
60 61 61 61 61 62 62 63 62 61 59 56 55 55 54 53 56 59 60 62 63 61 60 58 56 55 55 55 54 53 54 53 53
58 58 59 60 60 61 61 61 61 61 59 58 56 53 53 53 52 58 59 60 62 62 60 59 57 56 55 55 54 53 54 53 53
58 58 58 59 59 60 60 60 61 61 60 59 58 56 52 51 51 52 57 59 60 61 60 58 58 57 56 55 55 53 53 53 53
60 59 59 59 59 58 58 59 59 59 59 59 59 57 54 50 48 48 53 57 58 59 62 60 58 57 56 55 55 54 53 52 52
61 60 59 59 59 58 58 58 58 57 58 58 58 58 56 54 50 46 47 53 57 58 59 61 60 59 57 56 55 54 54 52 51
62 61 59 58 58 58 58 58 57 58 57 57 57 56 55 53 51 49 45 48 53 56 57 57 58 59 58 56 55 55 55 52 50
62 61 60 58 57 57 57 57 56 56 56 55 54 53 52 51 49 48 45 44 50 54 56 56 56 56 58 58 56 55 54 55 51
63 62 60 59 58 57 57 56 55 55 55 54 51 52 52 48 47 46 44 43 44 52 55 55 55 54 54 56 57 56 54 53 54
63 63 63 62 60 60 59 58 57 57 56 55 55 53 50 48 48 46 43 42 41 45 52 54 54 54 54 54 54 56 56 53 55
56 60 62 62 62 61 60 59 58 57 57 55 54 54 51 52 51 47 44 42 41 41 44 51 52 53 53 52 52 52 55 55 55
51 52 54 59 60 60 60 60 59 57 57 56 55 54 54 51 50 50 50 47 46 44 44 44 48 51 51 51 51 53 54 56 55

GFSFLT1_sfc_30mbdewp_075.txt.gz
Dewpoint
69 67 66 65 63 61 62 64 63 64 64 65 66 66 64 60 63 62 64 65 65 64 63 66 66 64 65 64 63 62 65 65 65
69 68 66 65 63 62 62 63 64 64 64 64 66 65 65 65 64 65 66 65 64 64 63 61 65 65 65 65 64 65 65 65 64
69 67 66 66 64 63 63 63 64 63 63 64 66 65 64 64 64 64 64 64 63 62 61 60 60 60 62 64 65 65 65 65 64
68 67 66 66 64 63 64 64 64 63 63 62 63 64 63 62 61 61 61 63 62 61 60 60 60 60 61 61 60 63 64 64 63
68 67 66 65 65 64 64 64 64 64 63 62 60 60 63 61 61 61 61 62 61 60 60 59 59 58 59 59 59 57 57 59 60
67 66 66 65 65 64 64 64 65 64 62 61 60 60 61 61 61 61 62 63 61 60 59 58 58 57 57 57 58 58 57 57 57
66 66 66 66 65 65 65 65 65 63 60 58 59 58 61 61 61 61 62 64 62 60 59 58 57 56 55 55 56 56 56 56 56
65 65 65 65 65 65 65 65 64 63 60 58 56 57 58 58 59 61 62 64 63 62 59 58 56 55 55 55 55 55 54 54 54
63 63 63 63 64 64 64 64 64 63 60 58 56 55 56 57 57 59 61 62 63 62 61 59 57 56 55 55 55 54 54 54 54
61 61 62 61 62 62 62 62 62 62 61 59 56 55 55 55 55 56 60 61 63 63 61 60 58 56 56 55 55 54 54 53 53
59 59 60 60 60 61 61 61 61 60 61 60 59 57 55 54 54 54 56 60 61 63 62 60 59 58 57 56 55 54 54 54 53
59 59 58 59 59 60 60 60 60 60 60 60 59 59 58 56 53 52 54 56 59 61 62 60 59 59 57 57 56 55 54 54 53
62 60 60 60 59 59 59 59 58 59 58 58 58 59 59 58 55 52 51 53 54 57 60 62 60 58 58 57 56 56 55 53 53
63 62 61 61 60 60 59 58 58 57 57 57 58 59 59 58 57 56 53 52 52 54 57 59 62 61 59 57 57 56 56 55 53
63 63 62 61 60 60 59 59 59 58 57 57 57 57 57 57 57 56 55 53 52 53 54 56 57 60 60 58 57 56 56 56 54
63 63 62 61 60 60 60 59 58 58 58 56 56 56 56 55 55 55 54 52 50 51 52 53 54 55 59 60 59 57 56 56 56
64 63 62 61 60 59 59 58 57 57 57 56 54 54 54 53 52 51 50 49 47 47 50 52 52 53 55 56 59 59 56 55 55
63 64 64 63 61 61 61 59 58 58 57 57 56 54 52 50 51 49 47 46 45 46 47 50 51 52 54 55 55 57 58 56 55
53 55 59 61 62 61 61 60 59 59 58 56 56 56 53 53 51 51 49 47 48 47 46 47 49 51 51 52 54 54 56 56 56
50 51 52 56 59 60 61 61 59 59 58 57 56 56 55 53 52 50 52 51 51 50 49 48 48 48 50 51 52 53 53 54 56

GFSFLT1_sfc_30mbdewp_078.txt.gz
Dewpoint
68 67 65 63 62 63 64 64 65 65 66 66 66 64 62 61 62 62 64 64 65 64 62 66 65 65 66 64 62 66 66 65 65
68 67 65 63 62 62 64 64 64 64 65 66 66 66 64 62 62 63 64 64 64 62 61 61 62 63 65 65 66 65 65 65 64
68 67 66 64 63 63 64 64 64 64 64 66 66 65 63 62 62 61 60 63 62 61 60 60 61 61 63 63 65 65 65 64 64
68 67 66 65 63 64 64 64 64 63 63 64 65 64 62 57 58 57 58 62 61 60 60 59 59 59 61 61 60 61 63 63 62
68 67 66 66 65 64 64 64 64 64 63 61 61 62 62 58 59 58 60 62 61 60 59 59 58 57 58 59 59 59 59 58 58
65 66 66 65 65 64 64 64 65 63 61 61 60 59 58 58 58 57 61 63 61 60 59 58 57 56 56 57 57 57 58 58 57
64 65 65 65 65 65 64 65 65 62 57 56 58 55 57 58 58 58 61 64 63 61 59 58 57 56 55 55 56 56 56 56 56
62 62 63 63 64 62 63 63 61 58 57 55 54 54 55 55 57 58 61 63 64 63 61 59 57 56 55 55 55 55 54 55 54
57 56 57 59 59 59 60 59 59 59 58 55 54 53 52 53 54 55 59 62 63 63 62 61 58 57 56 56 55 54 54 54 54
57 56 55 55 55 56 57 57 56 56 55 55 55 53 53 52 52 53 58 60 62 63 63 62 61 58 57 57 56 55 54 54 54
58 59 58 56 57 57 58 58 57 56 55 54 54 55 55 54 54 53 53 57 60 62 63 62 61 60 59 58 57 56 54 54 54
59 59 60 58 58 58 58 59 59 58 58 57 56 56 57 57 57 55 53 54 57 59 61 62 61 60 60 58 57 57 56 54 54
62 60 61 61 60 60 59 59 58 58 58 58 57 57 58 58 57 57 56 55 55 56 58 60 61 61 59 59 58 57 57 55 54
63 62 61 61 61 61 61 60 60 59 59 58 58 58 58 58 57 57 57 57 56 56 56 57 61 62 61 59 57 57 57 57 55
63 62 62 62 61 61 61 61 61 60 60 59 58 58 58 58 57 56 55 56 57 56 56 56 56 57 60 60 58 57 57 58 57
62 63 63 63 62 61 61 61 61 60 60 58 57 57 57 56 56 56 54 54 55 53 54 54 54 54 57 59 60 58 57 57 58
65 65 64 64 63 63 62 61 60 60 59 58 58 55 51 50 54 54 54 53 52 50 51 52 51 52 52 52 57 60 59 57 56
63 64 64 64 64 63 63 62 61 60 60 59 58 54 48 52 53 52 51 51 50 49 50 50 51 51 51 52 52 54 57 58 57
54 55 56 60 62 62 62 62 62 61 60 59 59 58 56 54 52 53 52 51 52 51 50 50 50 51 51 52 52 53 54 54 55
51 51 52 54 56 58 59 60 61 60 59 59 58 57 58 56 54 52 52 53 51 51 50 49 50 50 50 50 51 51 51 53 53

GFSFLT1_sfc_30mbdewp_081.txt.gz
Dewpoint
66 64 63 62 64 64 64 65 65 66 66 65 64 63 62 62 61 65 64 64 64 61 61 65 64 65 66 65 65 66 66 65 64
66 65 63 62 63 64 64 64 64 65 66 66 66 65 64 61 62 64 62 62 62 60 60 61 63 63 64 65 66 65 65 65 64
67 66 64 63 63 64 64 64 64 64 66 66 65 64 63 59 58 58 60 63 61 60 60 59 59 61 63 62 64 65 65 64 63
67 66 65 64 64 64 64 64 64 63 63 65 65 64 62 58 56 55 59 62 61 60 59 59 58 58 59 61 61 60 60 61 61
67 67 66 65 64 64 64 64 64 63 62 61 60 61 62 58 57 56 61 62 61 60 59 58 57 56 57 58 59 59 59 59 58
64 66 66 66 65 64 64 65 65 63 61 60 59 59 58 56 56 56 62 63 62 61 59 58 57 56 56 56 57 57 57 57 57
64 65 65 66 65 65 64 64 65 62 57 58 58 56 54 55 56 58 61 63 63 62 60 58 57 56 56 55 55 55 55 56 56
62 63 64 64 64 63 63 64 62 57 56 53 52 52 53 52 54 59 61 62 63 63 62 60 59 57 56 56 55 55 54 55 54
55 55 56 57 57 57 58 57 57 58 57 54 52 51 51 51 52 55 59 61 63 63 63 63 61 58 57 56 56 55 54 54 54
54 54 53 53 53 54 54 55 54 54 53 52 52 52 51 51 51 52 57 58 61 62 63 62 63 61 59 58 57 56 55 55 54
56 57 57 55 55 56 57 57 57 56 54 53 52 53 54 54 54 54 55 56 58 61 62 62 62 61 61 59 58 57 56 55 55
58 59 59 58 57 57 57 58 58 58 58 57 56 55 55 56 56 56 56 56 56 58 60 61 61 61 61 61 59 59 57 56 55
61 60 60 61 60 59 59 59 59 58 58 58 57 57 58 57 57 57 57 57 56 58 58 60 60 61 61 60 60 59 59 58 56
62 62 61 61 61 61 61 60 60 59 59 59 59 59 58 58 58 57 58 58 58 58 58 58 58 60 61 60 59 59 59 59 58
63 62 62 62 61 61 61 60 61 61 60 60 59 59 59 58 58 58 57 55 55 57 57 58 57 57 58 59 60 58 58 59 60
62 62 62 62 62 61 61 60 60 61 61 60 59 59 59 58 57 56 55 54 54 55 54 55 55 55 58 58 59 59 60 58 58
63 63 64 65 64 63 63 62 61 61 61 59 58 56 54 51 51 54 54 53 53 52 52 52 52 52 53 54 54 55 57 59 58
63 63 64 64 64 63 63 63 62 60 61 60 59 54 50 51 53 53 53 52 51 51 51 51 51 52 52 53 53 54 54 55 56
54 55 56 58 61 62 62 62 62 61 59 61 60 60 58 54 51 52 52 52 52 52 51 49 49 51 51 52 51 51 52 52 54
50 51 52 52 54 56 57 57 58 60 59 59 59 58 58 57 55 52 52 54 53 50 51 51 51 49 50 49 48 48 50 51 52

GFSFLT1_sfc_30mbdewp_084.txt.gz
Dewpoint
63 62 64 65 65 65 65 65 66 66 66 65 64 64 64 64 64 64 64 63 61 60 63 64 64 64 65 66 66 66 65 64 63
64 63 63 65 65 65 65 65 66 66 66 66 66 65 64 64 64 62 62 62 60 59 59 58 62 64 64 64 66 65 65 64 63
65 63 63 63 64 65 64 64 64 66 66 66 65 64 62 60 58 61 62 62 60 59 59 58 58 61 63 62 62 63 63 63 61
66 65 63 64 64 64 64 64 64 63 65 65 63 62 61 60 57 60 62 62 61 60 58 58 57 57 58 60 61 61 60 60 59
67 66 66 64 64 65 64 64 64 63 62 61 59 59 59 60 57 61 62 62 61 60 58 58 57 56 56 57 57 58 58 59 58
66 66 66 66 65 64 64 65 65 62 61 60 59 58 58 59 57 61 62 62 62 61 59 58 57 56 56 56 56 56 56 57 57
65 65 65 66 65 65 64 64 64 63 60 59 58 56 57 55 57 60 62 62 63 62 61 59 58 57 56 56 55 55 55 56 56
65 65 65 65 64 64 64 64 64 61 59 57 56 55 53 53 54 61 61 61 63 63 63 61 59 58 57 56 56 55 54 55 55
60 64 64 64 64 63 63 63 63 60 58 56 53 52 52 52 52 60 60 61 62 62 63 63 62 60 58 57 56 56 55 54 54
55 55 55 56 56 55 55 56 55 55 55 54 53 52 52 52 52 55 58 59 60 62 62 63 62 63 61 59 58 57 56 55 54
57 57 57 55 55 55 56 57 57 56 55 53 52 52 53 54 54 54 57 57 58 60 61 62 62 62 62 61 59 58 57 56 56
58 59 59 58 57 56 57 58 59 58 58 58 57 56 55 56 57 56 56 57 57 57 60 60 61 62 62 61 61 60 59 57 57
60 60 61 61 60 59 59 59 59 59 59 58 58 58 58 57 57 58 58 58 57 57 58 60 61 61 61 61 61 61 60 60 58
62 62 62 61 61 61 61 61 61 60 60 60 59 59 59 59 59 58 58 58 58 58 59 59 59 60 60 60 61 60 61 60 60
63 63 62 62 61 61 61 60 60 60 60 60 60 61 60 59 59 58 58 57 56 59 57 58 58 58 59 60 60 59 60 60 59
63 63 62 62 62 61 61 60 61 61 61 61 60 60 60 59 59 58 57 56 55 54 54 54 55 54 57 59 60 59 59 59 60
65 64 64 65 64 64 63 63 62 61 60 59 59 55 54 55 55 56 54 53 52 52 51 51 52 53 54 55 55 55 56 56 57
61 62 63 63 64 63 63 63 62 60 61 60 58 54 51 53 54 54 53 52 52 51 51 51 52 52 53 51 50 51 52 54 55
53 53 54 55 59 61 61 61 61 61 58 60 60 60 57 53 51 53 53 53 53 53 52 51 50 50 49 48 48 49 51 53 53
50 51 52 53 54 55 56 57 57 57 58 58 56 58 57 57 55 52 53 54 53 51 51 49 47 48 47 46 47 48 49 51 52

GFSFLT1_sfc_30mbdewp_087.txt.gz
Dewpoint
63 64 65 65 65 65 66 66 67 66 65 65 65 66 65 65 62 62 63 60 59 60 62 64 64 65 65 66 66 66 65 63 63
63 65 65 65 65 65 65 66 66 66 66 66 66 65 62 63 61 61 62 60 59 58 58 59 63 64 64 64 65 64 64 63 61
63 64 65 65 65 65 65 65 66 66 65 65 65 63 62 60 61 62 62 62 60 59 58 57 58 62 63 63 62 62 62 61 61
64 64 64 64 65 65 64 64 64 64 64 63 61 60 60 59 61 61 62 62 60 59 58 57 57 57 57 59 60 60 60 60 59
67 65 65 64 64 64 64 64 64 63 61 59 58 57 58 58 60 61 62 62 61 60 59 58 57 56 57 57 57 58 57 58 58
66 66 65 65 65 65 65 65 64 62 60 60 58 58 57 57 59 61 63 62 62 61 60 58 57 57 56 56 56 56 57 57 57
66 65 65 66 65 64 64 64 63 62 60 59 59 58 55 55 59 61 63 62 62 62 61 59 58 57 56 56 56 55 55 55 56
65 65 65 65 64 64 64 64 64 61 60 59 58 57 55 53 54 61 62 62 62 63 64 62 60 58 57 56 56 55 55 55 55
64 64 64 64 64 63 63 63 63 62 61 57 55 53 52 52 52 59 61 61 61 62 63 63 63 61 59 58 57 56 55 54 54
61 63 63 63 63 62 62 62 61 59 58 57 56 53 52 52 52 55 61 60 61 61 61 62 63 64 62 60 59 57 56 56 55
55 56 56 56 55 54 55 56 56 56 56 54 53 52 53 53 54 54 57 58 59 60 60 60 61 62 62 62 61 60 58 57 57
57 58 58 57 56 56 57 58 59 58 59 58 58 57 56 54 56 56 56 57 58 58 60 61 61 62 62 61 62 62 60 59 58
58 59 60 60 58 57 58 58 58 59 59 58 59 59 58 57 57 58 58 57 57 58 58 60 61 61 61 61 61 61 61 61 60
61 61 61 61 61 60 60 60 60 60 60 60 60 60 60 59 59 59 59 58 59 58 58 59 60 60 60 60 60 60 60 60 60
62 62 62 62 61 61 62 61 61 60 60 60 60 60 60 60 60 59 59 58 57 59 59 58 58 58 59 60 60 60 59 59 60
63 63 63 63 62 62 62 61 61 61 61 61 59 58 59 60 59 59 59 56 55 54 53 54 53 55 57 57 57 57 57 57 57
64 64 64 64 64 64 63 63 62 61 61 58 58 55 54 54 54 56 54 53 53 52 51 52 52 54 53 53 53 54 54 55 56
60 60 62 63 63 63 63 63 62 60 60 60 57 53 52 53 53 54 53 52 52 52 51 51 51 51 49 49 50 51 52 54 54
53 53 54 55 56 58 60 60 59 60 57 58 59 59 58 53 51 53 53 53 53 52 50 49 50 48 47 48 49 50 51 52 53
50 51 52 52 53 55 55 56 56 56 55 56 56 54 55 57 55 52 52 54 52 51 49 47 47 46 46 47 48 48 50 51 51

GFSFLT1_sfc_30mbdewp_090.txt.gz
Dewpoint
64 64 65 65 65 64 65 66 66 66 66 66 66 64 65 62 61 61 61 59 59 59 63 63 64 66 65 66 66 65 64 63 62
65 65 65 65 65 66 66 66 67 67 66 66 65 64 64 61 61 61 60 60 59 58 58 62 63 63 63 64 64 64 62 61 61
65 65 65 65 65 65 66 66 66 66 66 65 64 63 62 60 61 61 62 61 59 59 58 57 59 62 63 63 62 62 61 60 60
64 65 65 65 65 65 64 65 65 65 64 62 60 60 60 60 61 61 62 62 60 59 58 57 57 57 58 59 59 60 60 59 59
65 65 65 65 65 65 64 64 63 62 60 58 58 58 58 59 60 61 62 62 61 60 59 58 57 57 57 57 57 57 58 58 57
65 64 65 65 65 64 64 64 63 61 59 59 58 58 56 57 59 60 63 62 62 61 60 58 58 57 56 57 56 57 57 57 56
65 65 65 65 65 65 64 64 63 61 59 59 58 57 56 55 58 60 63 63 62 62 61 59 58 57 56 56 56 55 56 56 56
65 65 65 65 64 64 64 64 64 61 59 58 58 57 56 54 55 60 63 63 62 63 64 62 60 59 57 57 56 55 55 55 55
64 64 64 63 63 62 62 62 62 62 61 60 57 56 53 53 52 57 62 63 62 61 62 63 64 62 60 58 58 57 56 54 54
64 63 63 63 63 62 62 62 62 62 61 60 57 56 53 52 52 53 60 61 62 61 61 61 62 63 63 62 60 59 57 56 55
62 61 62 62 62 62 60 60 60 56 56 55 53 53 53 53 53 53 54 60 60 61 61 60 61 61 62 62 62 61 60 59 57
56 56 56 57 56 55 56 57 58 58 59 58 58 58 57 56 55 55 55 56 59 59 61 61 61 61 61 61 60 61 61 61 59
57 58 59 59 58 56 56 57 58 58 58 58 58 59 59 58 57 58 58 58 57 58 60 61 60 61 61 60 61 61 61 60 61
59 58 59 61 61 59 58 59 59 59 60 60 60 60 60 60 60 60 59 59 59 59 58 59 61 60 61 61 61 61 60 60 61
61 61 61 61 61 61 61 61 61 61 60 60 60 60 60 60 60 60 60 59 58 58 59 59 58 60 60 60 59 59 58 58 58
62 62 62 63 62 61 61 61 60 61 61 60 58 58 58 58 59 59 59 58 56 56 55 54 56 56 56 56 56 56 56 56 57
63 63 64 64 64 64 63 63 62 61 61 57 56 53 54 54 54 55 56 54 53 52 52 53 54 52 52 52 53 53 54 55 55
62 63 63 63 63 62 63 63 62 60 59 59 56 53 50 52 54 53 52 52 52 52 52 52 50 49 49 50 50 51 52 53 53
56 55 55 55 56 57 58 59 58 58 57 57 57 58 58 53 49 53 53 53 52 50 50 49 47 47 48 49 50 50 50 52 53
51 51 52 52 53 54 55 55 55 55 55 55 55 54 53 54 53 50 51 52 49 48 47 47 46 46 47 47 48 49 49 50 51

GFSFLT1_sfc_30mbdewp_093.txt.gz
Dewpoint
64 64 65 66 66 66 66 66 66 66 67 66 65 65 64 61 61 60 60 59 58 61 62 62 62 66 66 65 64 64 62 61 61
64 65 65 65 65 65 66 66 66 67 67 64 65 65 62 60 60 60 60 59 59 58 60 62 61 61 61 61 61 61 60 60 60
65 65 65 65 65 66 66 66 66 66 66 64 64 64 61 60 60 61 61 61 59 58 58 57 60 61 62 62 62 61 60 60 59
65 65 65 65 65 65 66 66 66 65 64 62 61 61 61 60 60 61 61 61 60 59 58 57 57 57 57 58 58 58 58 59 57
66 66 66 65 65 65 64 64 63 62 60 59 60 59 60 59 60 61 61 62 60 59 59 58 57 57 57 57 57 58 58 57 57
65 65 66 66 65 64 64 64 63 60 59 59 58 58 56 56 58 60 62 63 61 61 60 58 58 57 57 57 56 57 57 57 56
64 64 65 65 65 65 64 64 63 61 58 58 58 57 56 55 57 60 61 64 62 62 61 60 58 57 57 56 56 55 56 56 55
64 64 64 64 64 63 64 63 63 61 59 58 58 58 56 55 54 60 61 64 63 63 63 62 61 59 58 57 57 56 55 55 55
64 63 63 63 63 62 62 62 62 62 61 60 59 57 55 53 53 53 59 63 63 62 62 63 64 63 61 60 59 57 56 55 54
64 63 63 62 62 62 61 61 61 61 61 61 60 57 56 53 52 52 54 61 63 63 61 61 62 63 64 63 62 60 59 58 56
63 63 62 62 62 62 62 60 60 60 56 56 55 54 53 53 53 53 53 56 61 62 62 61 61 62 62 61 61 61 61 60 59
63 62 61 61 61 60 59 56 57 58 58 58 58 58 58 57 56 55 55 56 57 60 61 61 62 60 60 60 61 61 61 61 61
59 57 56 57 56 55 55 57 57 58 58 58 59 59 59 59 58 58 58 58 58 58 59 61 61 61 61 61 61 62 61 61 61
57 57 58 60 59 58 57 57 58 58 59 59 60 60 60 60 60 60 60 59 59 59 58 59 61 60 61 61 61 60 59 59 59
58 58 59 60 61 61 60 59 60 60 60 60 60 60 60 60 59 59 59 60 59 58 59 59 60 61 60 60 59 58 58 57 57
60 60 61 61 61 61 61 61 61 61 61 60 57 56 56 56 57 55 56 58 57 58 56 58 57 58 57 57 56 56 55 55 55
62 62 62 63 63 63 63 62 61 61 61 56 56 52 53 54 54 54 54 54 53 53 53 54 53 52 52 53 54 54 54 54 54
63 63 64 64 63 63 63 63 62 58 59 58 55 52 51 52 53 53 52 52 51 52 52 50 48 49 50 50 51 52 52 53 53
61 61 60 59 58 58 59 59 59 59 57 56 57 57 57 53 50 52 53 52 51 50 49 47 46 47 48 48 49 50 51 51 52
56 55 54 54 55 54 55 55 55 55 55 54 55 54 54 54 52 49 50 50 48 47 47 46 46 46 47 47 49 51 51 50 51

GFSFLT1_sfc_30mbdewp_096.txt.gz
Dewpoint
64 64 65 65 65 65 65 66 66 67 66 66 65 65 62 60 60 59 60 58 59 62 62 62 62 62 63 62 61 60 60 60 60
64 66 66 66 66 66 66 66 67 67 65 65 66 63 61 60 60 60 59 59 59 59 61 62 61 61 61 61 61 61 60 60 59
64 63 64 65 66 66 66 66 67 66 64 65 66 62 60 60 60 60 61 61 59 58 58 58 58 59 60 60 59 59 59 59 58
64 64 65 65 66 66 66 66 66 65 63 62 63 62 61 59 60 61 61 61 60 59 58 58 58 58 57 57 57 58 58 57 57
65 66 65 65 65 65 65 65 64 62 60 61 59 60 60 59 60 60 61 62 60 60 59 58 58 58 58 57 57 57 58 57 56
66 65 66 66 65 65 64 63 62 60 59 59 59 57 56 56 58 60 61 64 62 61 60 59 58 57 57 57 57 57 57 57 56
64 64 65 65 65 64 64 63 62 60 58 58 58 56 56 55 55 60 61 64 63 62 61 60 59 58 57 57 56 55 56 55 55
63 63 64 64 64 63 64 63 62 60 58 58 58 58 57 55 53 57 61 63 64 63 63 63 62 61 59 58 57 56 55 55 55
63 63 63 63 63 62 61 61 61 61 61 60 60 58 56 54 53 53 55 61 64 63 62 63 64 64 63 61 60 59 58 56 55
63 63 62 62 62 62 60 61 61 61 60 60 60 59 57 56 53 53 53 56 62 63 63 62 62 63 62 62 62 62 60 60 58
63 63 62 61 61 61 61 60 60 60 58 56 56 55 54 54 53 53 53 55 57 62 62 62 62 61 60 60 61 61 61 62 61
64 63 62 62 61 61 61 59 57 57 58 58 58 58 58 58 57 57 56 56 56 58 62 62 62 61 61 61 61 62 62 62 62
63 63 61 60 60 59 56 55 56 58 58 58 58 59 59 59 59 58 58 58 58 58 59 61 62 62 61 61 61 61 60 60 60
61 60 58 57 57 56 55 56 57 57 58 59 59 60 60 61 60 60 60 60 60 59 59 59 61 61 61 62 61 59 58 58 58
59 58 57 59 60 59 58 57 59 59 60 60 60 61 60 59 58 58 58 59 59 59 58 59 61 62 61 60 59 57 56 55 55
58 58 58 59 60 60 61 61 60 60 61 60 57 56 56 55 54 54 55 56 57 57 58 58 57 57 57 57 56 55 55 55 55
60 60 60 61 61 62 62 61 60 60 60 56 55 51 52 53 54 53 53 53 53 53 53 52 51 52 52 53 53 53 54 53 54
62 62 62 63 63 62 63 62 61 58 58 58 55 51 49 52 53 52 52 52 51 52 50 48 49 49 50 50 51 52 52 52 53
62 63 63 63 62 61 60 60 59 59 57 56 56 56 55 52 49 52 51 50 50 50 48 47 48 48 48 49 51 52 52 52 52
57 58 58 58 57 57 57 56 56 55 55 54 54 54 53 55 53 49 49 49 47 47 47 46 46 47 47 48 51 51 51 53 51

GFSFLT1_sfc_30mbdewp_099.txt.gz
Dewpoint
64 64 66 66 66 65 66 67 68 67 66 66 64 62 62 60 59 59 59 59 61 61 62 62 63 62 61 61 61 61 60 59 58
64 65 66 66 66 66 66 67 67 66 66 66 64 62 61 59 59 60 60 59 59 59 60 60 60 60 60 61 60 60 59 58 57
64 66 66 66 66 66 66 67 67 65 66 66 63 62 60 59 59 60 60 61 59 59 58 58 58 58 58 58 58 58 58 57 58
64 64 65 65 65 67 67 67 66 64 63 65 64 62 60 59 60 60 61 61 60 60 59 59 59 58 58 58 58 58 58 57 57
64 65 65 65 66 67 66 66 65 62 61 61 61 61 60 60 61 60 61 62 60 60 59 59 58 58 58 58 58 58 58 57 57
64 65 66 66 65 65 64 63 62 60 59 60 59 57 57 57 57 60 60 64 62 61 60 59 58 58 57 57 57 57 57 57 56
65 65 66 65 65 64 64 63 61 58 57 58 58 56 56 56 55 59 61 63 63 62 61 60 59 59 58 57 57 56 56 55 55
64 64 64 64 64 62 63 63 61 59 58 58 58 58 57 55 55 54 60 63 64 63 63 64 63 61 60 59 58 57 56 56 55
63 63 63 63 63 62 62 62 61 61 61 61 60 59 57 55 54 53 54 59 63 64 63 63 64 64 64 62 61 60 59 58 56
63 63 63 63 63 62 61 61 61 61 61 60 59 60 58 57 56 54 53 54 58 63 63 63 62 62 62 62 62 62 62 61 60
64 63 63 62 62 62 61 61 61 60 60 57 57 57 56 55 55 55 55 55 56 60 62 62 62 62 61 61 61 62 62 61 62
63 63 63 62 62 61 61 61 59 58 58 58 59 59 59 59 58 58 58 57 56 57 60 62 62 62 61 61 62 62 61 61 62
64 64 63 63 62 61 60 58 56 57 58 58 59 59 60 59 59 59 59 59 60 60 60 61 62 62 61 61 61 60 59 59 59
64 63 63 62 60 58 58 56 57 57 58 59 59 60 60 61 60 60 59 60 60 60 60 59 60 61 61 61 60 59 57 56 56
63 63 61 59 57 57 57 56 57 58 60 60 60 61 60 59 57 56 56 57 59 60 60 60 61 62 61 60 58 56 56 56 55
60 60 60 59 59 59 59 59 59 59 61 60 58 57 57 55 55 55 56 57 57 59 60 59 58 57 57 57 57 56 55 54 55
61 60 59 58 59 60 61 61 61 60 61 56 56 53 52 54 54 54 54 54 55 56 55 54 53 53 53 53 53 53 53 54 54
62 61 61 60 61 62 62 62 60 58 59 59 55 52 50 52 54 53 52 52 53 52 51 51 50 50 50 50 52 53 53 53 53
63 63 63 63 62 62 61 60 60 60 58 58 57 57 56 51 49 53 51 51 51 50 49 49 49 48 48 51 52 52 53 53 53
59 59 59 58 58 57 58 57 57 57 57 57 55 55 55 56 54 48 51 50 49 49 48 48 47 47 48 49 51 52 53 54 52

GFSFLT1_sfc_30mbdewp_102.txt.gz
Dewpoint
64 66 66 67 66 67 67 68 67 67 66 64 61 61 61 57 55 55 57 56 60 62 63 63 62 61 61 61 60 59 59 58 59
65 66 66 66 66 67 67 67 67 67 66 64 62 61 59 55 56 56 56 58 59 59 59 60 60 59 59 58 59 59 58 58 59
64 66 65 66 67 66 67 67 65 66 67 64 62 61 58 57 57 58 57 60 60 59 59 59 58 58 58 58 58 58 57 58 58
65 66 67 66 67 67 67 67 65 65 67 64 63 61 59 57 58 57 58 61 60 60 60 59 59 59 59 59 59 58 57 57 58
65 65 65 64 67 67 67 67 65 62 62 62 63 61 59 58 59 58 59 62 60 60 59 59 59 59 58 58 58 58 58 57 57
63 64 65 66 67 67 66 65 63 61 60 60 59 58 56 54 56 58 60 64 62 61 60 59 59 58 58 58 57 57 57 56 56
61 64 66 66 66 65 64 63 61 57 55 55 56 54 55 53 53 56 60 62 64 63 62 61 60 59 58 58 57 57 56 56 55
61 62 62 60 62 58 60 59 55 53 54 56 55 55 55 52 53 54 59 62 63 64 64 64 63 62 61 60 59 58 57 56 55
58 58 58 57 56 56 56 55 55 54 56 57 56 56 55 54 53 53 53 56 62 63 64 63 63 64 63 63 62 61 60 59 58
57 57 58 58 59 59 58 58 58 58 58 58 57 56 56 55 55 55 54 54 57 61 63 63 63 63 62 62 62 63 63 62 62
60 60 60 60 60 59 57 58 58 58 57 56 56 56 56 56 57 56 56 56 56 59 61 62 62 63 61 61 61 62 62 62 62
61 61 62 61 59 59 59 59 58 57 57 57 57 58 57 57 56 56 57 57 57 57 60 62 63 63 61 62 61 62 61 60 61
63 63 61 60 60 59 58 57 55 55 57 57 57 57 57 56 56 58 57 58 58 59 60 61 61 62 61 62 61 60 59 58 57
63 63 62 61 60 59 58 57 55 55 57 57 56 56 56 58 58 56 56 56 57 56 59 59 59 61 61 61 61 59 57 56 56
64 62 62 61 59 58 57 56 56 58 57 57 56 56 57 57 56 55 54 55 57 58 59 59 61 62 62 61 59 57 56 56 55
63 63 62 61 58 56 57 57 58 58 58 58 55 56 56 55 55 54 55 56 57 59 60 60 60 59 58 58 57 56 55 55 55
62 61 61 61 59 57 58 58 60 59 59 55 54 50 49 52 54 54 54 54 56 57 57 57 57 57 55 55 54 54 54 54 54
63 63 62 62 60 58 59 61 60 57 59 58 54 51 47 50 53 54 53 53 54 54 54 54 53 52 51 51 52 53 53 54 54
63 63 62 62 63 63 63 62 62 60 57 59 58 58 57 51 46 52 53 52 52 52 52 52 51 50 50 51 52 53 54 54 53
63 63 63 60 58 57 57 57 57 57 58 58 58 56 55 54 51 45 47 52 51 51 51 50 50 49 49 50 51 53 53 56 55

GFSFLT1_sfc_30mbdewp_105.txt.gz
Dewpoint
65 67 68 64 65 67 68 67 66 66 63 61 61 60 59 60 55 55 56 57 61 62 61 61 60 60 59 59 59 59 58 59 59
66 67 66 64 67 67 67 67 67 66 64 62 61 60 59 54 55 56 57 59 59 59 59 59 59 59 59 59 59 58 58 59 59
65 65 64 65 67 67 67 66 67 67 65 63 62 59 60 55 56 56 58 61 60 60 59 59 59 59 59 59 59 58 58 58 58
65 65 63 66 67 67 67 65 66 67 65 64 62 60 60 58 57 56 58 61 60 60 60 60 59 59 59 59 59 58 58 58 58
65 65 65 67 67 68 67 66 64 66 66 64 63 61 59 57 57 57 60 61 60 60 60 59 59 59 59 59 59 59 58 57 57
64 64 65 66 67 68 67 66 64 62 61 60 60 60 57 53 55 57 62 63 62 61 60 59 59 59 58 58 58 58 57 56 56
60 65 66 66 66 66 66 64 62 59 57 56 56 54 54 52 52 59 61 62 64 63 62 61 60 59 59 58 58 57 57 56 55
62 64 63 64 64 62 63 61 58 55 51 52 53 53 53 51 52 57 60 62 63 64 64 65 64 63 62 61 60 59 58 57 56
59 60 59 58 58 55 56 55 52 52 52 54 54 54 53 53 53 54 54 58 62 63 64 64 64 65 64 64 63 62 61 60 60
57 56 56 55 53 54 55 55 54 52 53 55 55 55 55 54 54 54 54 54 57 59 62 63 63 63 63 63 62 63 63 63 63
55 55 55 56 57 57 56 56 56 55 55 55 55 54 55 54 55 56 57 56 56 59 61 62 63 63 62 61 62 62 62 61 61
58 58 59 58 58 56 56 55 55 55 55 55 55 56 55 56 55 56 55 58 57 57 59 62 63 63 62 61 62 62 60 59 58
60 60 60 60 58 57 56 56 56 54 54 55 56 56 56 55 55 55 55 56 56 58 60 61 61 62 62 62 61 60 58 56 56
62 62 61 59 58 57 56 55 54 53 55 56 55 55 54 55 55 55 54 55 56 56 60 59 60 60 62 62 61 58 57 56 56
63 62 60 59 59 58 57 56 55 54 56 55 54 55 56 57 55 55 54 54 56 57 58 60 60 62 62 62 60 57 57 56 56
63 62 61 62 60 58 56 56 55 56 58 56 56 55 54 54 54 53 53 55 56 57 58 61 60 59 59 59 58 56 55 55 55
62 62 63 62 62 60 57 56 57 58 58 57 55 50 49 53 53 53 53 54 55 56 57 58 57 58 56 55 54 54 54 54 55
64 63 63 63 63 62 61 59 58 59 60 59 53 50 49 49 53 53 52 52 53 54 55 55 55 54 53 53 52 54 55 55 55
65 64 63 63 63 62 61 61 62 61 58 58 59 58 56 52 45 52 53 52 52 53 53 53 52 51 52 51 52 53 54 55 53
64 64 63 63 62 60 59 59 59 58 59 58 56 53 54 55 53 48 49 52 52 52 51 51 51 50 51 51 52 54 54 56 57

GFSFLT1_sfc_30mbdewp_108.txt.gz
Dewpoint
66 68 67 65 66 66 66 66 65 62 61 60 59 60 59 60 56 58 61 60 60 60 60 60 59 59 59 59 59 59 59 59 59
67 67 65 64 68 68 67 66 66 64 62 60 60 59 60 57 57 59 60 60 60 60 60 60 60 60 60 59 59 59 59 58 58
68 65 63 65 67 67 67 67 66 65 63 62 60 59 60 58 58 60 61 61 60 60 60 60 60 60 60 60 59 59 59 58 58
65 63 63 66 68 67 67 66 67 66 64 63 61 59 60 60 58 60 61 61 60 60 60 60 60 60 60 60 60 59 58 58 58
64 63 64 66 67 68 67 66 67 67 65 64 62 60 60 59 58 60 61 61 60 60 60 60 60 60 59 59 59 59 58 58 57
64 63 64 65 66 67 67 65 64 64 63 61 60 60 59 58 58 61 63 62 61 60 60 60 59 59 59 59 58 58 58 57 57
63 65 65 65 65 67 67 65 63 61 59 58 57 55 55 53 57 60 63 64 63 63 62 61 60 60 59 59 59 58 57 57 56
64 65 65 65 65 65 65 64 61 59 59 56 53 53 54 53 54 59 60 62 63 64 64 65 64 63 62 61 60 60 59 58 58
63 62 63 63 63 62 62 61 59 58 53 53 54 54 53 53 55 57 57 60 62 63 63 64 65 65 63 64 63 62 62 61 61
61 61 61 60 59 58 58 58 55 53 52 53 55 55 54 54 55 54 54 55 57 60 61 63 63 64 62 62 62 63 63 62 62
58 58 57 57 55 56 56 56 56 55 54 55 56 55 55 55 55 55 55 55 56 58 60 61 62 64 61 62 62 62 62 60 60
56 56 56 57 58 58 56 56 56 56 56 55 56 55 55 55 55 57 57 57 57 58 60 61 63 63 63 61 62 62 60 58 57
58 59 59 59 58 57 56 56 56 56 55 56 56 56 57 56 55 55 55 57 58 58 60 61 61 61 62 62 61 60 57 57 56
61 61 61 60 58 57 57 57 56 55 54 56 57 56 56 56 55 54 55 56 56 57 61 60 61 60 62 62 61 58 57 57 56
62 62 62 61 59 58 58 57 56 55 54 56 55 55 55 56 57 55 54 56 57 58 60 60 60 62 62 62 60 58 57 56 56
63 63 62 61 59 59 58 57 56 55 57 56 56 56 55 56 54 54 54 55 57 57 60 60 59 59 59 60 59 57 56 55 55
63 62 63 62 62 61 59 56 56 57 57 57 56 54 53 54 52 53 54 54 56 57 57 59 59 57 56 55 55 54 54 54 55
63 63 63 63 63 62 62 62 60 58 59 60 57 51 48 52 53 53 53 53 54 55 55 55 55 54 53 52 52 54 54 55 55
63 63 63 63 62 62 61 62 61 60 60 59 59 58 57 51 48 53 53 53 52 54 53 53 52 52 52 51 53 54 56 56 55
62 62 62 62 61 60 60 60 60 60 59 59 57 54 53 54 53 49 50 52 52 52 52 52 51 51 51 52 52 54 55 56 57

GFSFLT1_sfc_30mbdewp_111.txt.gz
Dewpoint
68 67 68 67 66 65 65 62 61 61 60 59 60 61 61 58 59 60 61 60 60 60 60 60 60 60 60 59 60 59 59 59 60
69 69 67 67 67 66 65 64 62 62 60 60 60 61 60 58 59 60 60 60 60 60 60 60 61 61 60 60 59 59 59 59 59
68 67 67 68 68 67 66 66 64 63 62 61 60 60 61 59 59 60 61 62 61 61 61 61 61 61 61 60 60 60 59 59 59
67 65 66 66 68 67 67 67 66 64 63 61 59 59 61 59 59 60 61 62 61 61 61 61 61 61 61 61 60 59 59 58 59
65 61 64 65 68 67 67 67 67 65 64 62 60 60 59 59 60 60 61 61 61 61 61 60 60 60 60 60 60 59 58 58 57
63 60 64 65 69 67 66 67 68 66 64 61 59 59 58 58 60 61 63 61 61 60 60 60 60 60 59 59 59 59 58 57 57
61 61 64 64 67 67 66 65 64 62 60 59 58 56 55 54 60 62 63 63 62 62 62 61 60 60 60 59 59 58 58 58 57
63 62 65 65 66 66 66 65 63 60 59 57 55 52 52 54 59 61 63 63 64 64 65 65 63 63 62 61 61 60 59 59 59
62 62 63 63 64 64 64 63 62 60 59 57 56 54 54 54 58 59 59 61 62 63 64 65 65 65 64 64 63 62 62 62 62
62 61 62 62 63 62 62 61 60 58 56 52 54 54 53 54 55 56 57 58 60 61 61 62 64 64 64 62 63 63 63 62 61
62 61 62 62 61 61 60 59 58 56 53 52 54 56 55 55 55 54 55 55 57 58 61 61 62 63 62 62 62 62 61 59 58
61 61 60 60 58 58 57 56 56 56 55 54 56 56 55 55 56 55 55 56 56 58 61 62 62 62 62 61 63 62 59 57 57
58 58 58 58 58 58 57 56 56 56 56 56 56 56 56 57 56 57 57 57 58 59 60 61 61 61 62 62 63 61 58 57 56
57 58 58 59 58 57 57 56 57 55 55 55 56 56 57 56 55 55 56 57 57 59 61 60 60 60 62 63 62 59 57 57 56
59 60 60 59 58 57 57 56 57 56 55 54 56 56 56 57 56 55 56 57 58 59 60 60 61 61 62 62 61 58 57 56 56
61 62 61 61 59 58 58 57 56 56 56 56 56 56 55 56 54 54 56 57 57 59 60 59 59 59 61 61 60 58 56 55 55
62 62 62 62 60 59 58 57 57 56 57 56 56 53 54 54 53 54 55 55 57 57 60 59 58 57 56 56 56 56 56 55 56
63 63 63 63 62 61 61 61 59 57 60 60 57 53 50 52 53 53 53 54 55 56 56 56 56 54 53 52 53 54 55 56 56
63 63 63 63 62 62 61 62 61 60 58 60 60 59 57 50 51 53 53 53 54 54 54 53 52 52 52 52 53 54 55 57 57
62 63 62 62 62 61 60 60 60 60 59 59 57 57 57 56 53 51 51 53 53 54 53 52 51 51 51 51 52 53 55 55 56

GFSFLT1_sfc_30mbdewp_114.txt.gz
Dewpoint
68 68 68 67 66 64 64 64 64 62 61 62 63 62 63 61 60 61 61 60 60 61 61 61 61 61 60 60 60 60 60 60 59
68 68 67 67 66 64 62 62 61 60 61 62 62 61 60 58 59 60 60 61 61 61 61 61 61 61 61 60 60 60 60 59 59
69 68 68 67 65 65 64 62 62 61 61 61 62 61 59 59 60 61 61 62 61 61 61 61 61 61 61 61 60 60 59 59 59
68 67 67 67 66 66 66 64 63 63 62 61 60 62 60 59 60 61 62 62 62 62 61 61 61 61 61 61 60 60 59 59 59
67 68 67 69 69 68 67 66 65 64 62 61 60 60 60 59 59 60 62 61 61 61 61 61 61 60 60 60 60 59 59 58 58
65 64 67 67 68 67 67 68 67 64 63 61 59 59 58 59 60 61 63 61 61 61 60 60 60 60 60 59 59 59 59 58 58
62 59 63 65 67 67 67 68 68 65 61 59 58 56 55 56 60 61 63 62 62 62 61 61 60 60 60 60 59 59 59 58 58
61 60 63 66 67 66 66 64 63 60 58 57 55 52 52 55 60 61 63 63 63 64 64 63 63 63 62 61 61 60 60 59 59
62 60 64 64 66 66 65 63 62 60 59 58 57 54 54 54 59 60 63 64 63 63 64 65 66 65 64 64 63 62 62 62 62
61 59 60 62 64 64 63 63 62 60 59 58 56 55 54 54 56 58 60 60 62 62 63 63 64 64 63 63 63 63 63 63 61
61 60 60 61 63 62 62 62 60 59 57 55 52 54 54 54 55 55 56 57 59 61 61 61 62 63 62 62 62 63 62 60 58
61 61 61 61 61 62 61 60 59 57 56 53 53 55 56 55 55 54 54 56 58 59 61 62 62 63 61 62 63 62 61 58 57
61 61 61 61 60 60 59 58 57 56 56 55 55 56 55 55 55 56 55 56 56 57 60 62 62 61 61 62 63 62 59 57 57
61 61 60 60 59 58 57 56 56 56 56 56 56 56 56 56 56 56 56 57 58 58 60 60 60 60 61 63 63 61 58 57 56
59 59 58 58 58 57 57 56 57 56 55 54 55 56 57 57 55 55 56 56 57 59 59 60 61 61 62 63 62 59 57 56 55
58 58 58 59 58 58 57 56 56 56 56 55 55 56 56 56 55 55 56 57 58 59 59 59 59 60 62 62 60 59 57 55 55
58 59 60 60 59 58 57 57 56 56 56 55 56 54 54 54 54 55 56 56 58 60 59 58 57 57 57 57 57 57 56 56 56
60 61 62 62 61 59 59 58 57 56 59 58 56 53 51 53 53 53 54 56 56 58 58 58 56 55 54 53 53 53 54 56 57
62 62 62 62 62 61 61 61 59 59 58 59 60 57 55 50 51 53 53 54 55 55 55 56 54 53 52 52 53 54 55 57 57
63 62 62 62 62 61 61 61 61 60 59 59 58 57 57 57 52 51 53 53 54 55 54 53 52 51 51 51 52 53 55 55 56

GFSFLT1_sfc_30mbdewp_117.txt.gz
Dewpoint
66 65 64 64 64 64 63 66 65 62 63 63 66 66 65 62 61 61 61 60 61 61 62 62 61 61 61 61 60 60 60 60 59
67 68 66 65 65 64 65 64 62 61 63 63 63 63 61 59 59 60 60 61 62 62 62 62 62 62 61 61 60 60 60 60 60
69 68 67 65 64 63 62 61 60 62 62 63 62 61 59 59 60 61 61 62 62 62 62 62 62 62 61 61 60 60 60 60 60
69 68 66 65 64 63 62 61 61 62 62 62 63 61 59 59 60 61 62 63 62 62 62 62 62 61 61 61 60 60 60 60 60
69 68 67 67 67 66 65 63 63 63 62 61 61 61 60 58 60 61 62 62 62 62 61 61 61 61 61 60 60 59 59 59 58
68 67 67 68 68 68 67 66 65 64 62 61 60 59 59 59 59 60 62 62 61 61 61 61 61 60 60 60 60 59 59 59 58
66 66 68 69 69 68 68 68 66 64 62 59 59 57 56 58 59 60 63 62 62 61 61 61 61 60 60 60 59 59 59 59 58
63 63 66 67 66 66 67 68 67 64 59 57 55 54 53 54 59 60 63 63 62 63 63 63 62 62 62 62 61 60 60 59 60
61 59 63 65 66 65 65 64 63 60 59 58 57 54 53 54 59 60 62 64 63 64 65 66 66 65 64 64 63 62 62 61 62
61 59 62 64 65 65 64 62 61 60 59 59 58 56 55 54 57 59 61 62 64 63 63 63 64 64 64 63 64 64 63 63 61
61 60 60 62 64 64 64 62 61 60 60 58 56 54 55 54 54 57 58 60 60 62 63 62 62 62 62 61 63 63 63 60 58
61 60 59 61 63 63 62 62 61 60 58 56 54 52 54 54 54 55 55 56 59 60 62 62 62 62 62 61 63 63 62 58 57
61 60 60 61 61 62 61 60 59 58 57 56 54 54 55 56 55 55 54 54 56 57 60 62 62 62 62 61 62 63 60 57 57
61 60 60 61 61 60 60 59 58 57 56 56 56 56 56 56 56 56 55 55 55 57 59 60 60 60 61 61 62 62 59 57 56
62 60 60 61 60 59 59 58 57 56 56 55 55 56 56 57 57 56 56 57 57 59 59 59 60 60 60 63 63 60 58 57 56
63 61 60 60 59 59 58 57 56 56 56 55 54 55 56 56 57 55 56 57 58 59 59 59 59 61 63 63 61 60 58 56 56
62 60 59 59 59 58 57 56 56 56 56 55 55 52 54 55 55 55 56 57 58 59 59 58 58 58 58 59 59 59 57 56 56
62 61 60 59 59 58 58 57 57 56 57 57 55 53 52 53 53 53 55 56 58 59 58 57 56 56 56 55 54 53 54 56 57
61 61 60 60 60 59 59 59 58 57 56 58 59 57 54 51 51 53 54 55 56 57 57 57 55 54 53 52 52 54 55 56 57
62 61 61 61 61 61 60 60 59 59 58 58 58 58 57 56 52 50 52 53 55 55 56 56 54 52 52 52 53 53 54 56 56